Time,TemperatureF,DewpointF,PressureIn,WindDirection,WindDirectionDegrees,WindSpeedMPH,WindSpeedGustMPH,Humidity,HourlyPrecipIn,Conditions,Clouds,dailyrainin,SoftwareType,DateUTC
2013-09-28 00:00:00,59.9,53.1,29.31,ESE,106,6.0,9.0,78,0.00,,,0.01,WUHU216DAVISVP2,2013-09-28 04:00:00,
2013-09-28 00:01:00,59.8,53.0,29.31,ESE,120,5.0,9.0,78,0.00,,,0.01,WUHU216DAVISVP2,2013-09-28 04:01:00,
2013-09-28 00:02:00,59.8,53.0,29.31,East,100,3.0,9.0,78,0.00,,,0.01,WUHU216DAVISVP2,2013-09-28 04:02:00,
2013-09-28 00:06:00,59.7,52.9,29.30,SE,131,4.0,9.0,78,0.00,,,0.01,WUHU216DAVISVP2,2013-09-28 04:06:00,
2013-09-28 00:07:00,59.7,52.9,29.30,ESE,110,4.0,9.0,78,0.00,,,0.01,WUHU216DAVISVP2,2013-09-28 04:07:00,
2013-09-28 00:11:00,59.5,52.7,29.30,East,100,4.0,9.0,78,0.00,,,0.01,WUHU216DAVISVP2,2013-09-28 04:11:00,
2013-09-28 00:12:00,59.5,52.7,29.30,ESE,122,2.0,9.0,78,0.00,,,0.00,WUHU216DAVISVP2,2013-09-28 04:12:00,
2013-09-28 00:16:00,59.4,52.9,29.30,SE,135,2.0,9.0,79,0.00,,,0.00,WUHU216DAVISVP2,2013-09-28 04:16:00,
2013-09-28 00:17:00,59.4,52.9,29.30,SE,133,6.0,9.0,79,0.00,,,0.00,WUHU216DAVISVP2,2013-09-28 04:17:00,
2013-09-28 00:21:00,59.2,52.8,29.31,ESE,121,4.0,9.0,79,0.00,,,0.00,WUHU216DAVISVP2,2013-09-28 04:21:00,
2013-09-28 00:22:00,59.2,52.8,29.31,ESE,113,1.0,9.0,79,0.00,,,0.00,WUHU216DAVISVP2,2013-09-28 04:22:00,
2013-09-28 00:26:00,59.0,52.9,29.31,ESE,108,4.0,9.0,80,0.00,,,0.00,WUHU216DAVISVP2,2013-09-28 04:26:00,
2013-09-28 00:27:00,59.0,52.9,29.31,ESE,109,5.0,9.0,80,0.00,,,0.00,WUHU216DAVISVP2,2013-09-28 04:27:00,
2013-09-28 00:28:00,58.9,52.8,29.31,ESE,111,5.0,9.0,80,0.00,,,0.00,WUHU216DAVISVP2,2013-09-28 04:28:00,
2013-09-28 00:31:00,58.8,52.7,29.31,ESE,111,5.0,8.0,80,0.00,,,0.00,WUHU216DAVISVP2,2013-09-28 04:31:00,
2013-09-28 00:32:00,58.8,52.7,29.31,East,93,1.0,8.0,80,0.00,,,0.00,WUHU216DAVISVP2,2013-09-28 04:32:00,
2013-09-28 00:33:00,58.8,52.7,29.31,SE,137,0.0,8.0,80,0.00,,,0.00,WUHU216DAVISVP2,2013-09-28 04:33:00,
2013-09-28 00:36:00,58.7,52.6,29.31,ESE,115,3.0,8.0,80,0.00,,,0.00,WUHU216DAVISVP2,2013-09-28 04:36:00,
2013-09-28 00:37:00,58.7,52.6,29.31,SE,133,6.0,8.0,80,0.00,,,0.00,WUHU216DAVISVP2,2013-09-28 04:37:00,
2013-09-28 00:38:00,58.7,52.6,29.31,SE,125,3.0,8.0,80,0.00,,,0.00,WUHU216DAVISVP2,2013-09-28 04:38:00,
2013-09-28 00:42:00,58.6,52.5,29.31,ESE,106,1.0,8.0,80,0.00,,,0.00,WUHU216DAVISVP2,2013-09-28 04:42:00,
2013-09-28 00:43:00,58.6,52.5,29.31,ESE,113,10.0,10.0,80,0.00,,,0.00,WUHU216DAVISVP2,2013-09-28 04:43:00,
2013-09-28 00:47:00,58.4,52.6,29.31,SE,126,4.0,10.0,81,0.00,,,0.00,WUHU216DAVISVP2,2013-09-28 04:47:00,
2013-09-28 00:48:00,58.4,52.6,29.31,SE,125,2.0,10.0,81,0.00,,,0.00,WUHU216DAVISVP2,2013-09-28 04:48:00,
2013-09-28 00:52:00,58.3,52.5,29.30,East,92,5.0,10.0,81,0.00,,,0.00,WUHU216DAVISVP2,2013-09-28 04:52:00,
2013-09-28 00:53:00,58.3,52.5,29.30,ESE,117,4.0,10.0,81,0.00,,,0.00,WUHU216DAVISVP2,2013-09-28 04:53:00,
2013-09-28 00:54:00,58.3,52.5,29.30,SSE,154,3.0,10.0,81,0.00,,,0.00,WUHU216DAVISVP2,2013-09-28 04:54:00,
2013-09-28 00:57:00,58.2,52.4,29.31,ESE,116,4.0,10.0,81,0.00,,,0.00,WUHU216DAVISVP2,2013-09-28 04:57:00,
2013-09-28 00:58:00,58.2,52.4,29.31,ESE,112,4.0,10.0,81,0.00,,,0.00,WUHU216DAVISVP2,2013-09-28 04:58:00,
2013-09-28 00:59:00,58.1,52.3,29.31,ESE,118,0.0,10.0,81,0.00,,,0.00,WUHU216DAVISVP2,2013-09-28 04:59:00,
2013-09-28 01:02:00,58.0,52.6,29.30,East,97,0.0,8.0,82,0.00,,,0.00,WUHU216DAVISVP2,2013-09-28 05:02:00,
2013-09-28 01:03:00,58.0,52.6,29.30,ESE,102,2.0,8.0,82,0.00,,,0.00,WUHU216DAVISVP2,2013-09-28 05:03:00,
2013-09-28 01:04:00,58.0,52.6,29.30,SE,131,3.0,8.0,82,0.00,,,0.00,WUHU216DAVISVP2,2013-09-28 05:04:00,
2013-09-28 01:08:00,57.9,52.5,29.30,ESE,119,3.0,8.0,82,0.00,,,0.00,WUHU216DAVISVP2,2013-09-28 05:08:00,
2013-09-28 01:09:00,57.9,52.5,29.30,ESE,122,0.0,8.0,82,0.00,,,0.00,WUHU216DAVISVP2,2013-09-28 05:09:00,
2013-09-28 01:13:00,57.8,52.4,29.30,ESE,104,4.0,9.0,82,0.00,,,0.00,WUHU216DAVISVP2,2013-09-28 05:13:00,
2013-09-28 01:14:00,57.8,52.4,29.30,ESE,120,5.0,9.0,82,0.00,,,0.00,WUHU216DAVISVP2,2013-09-28 05:14:00,
2013-09-28 01:15:00,57.8,52.4,29.30,ESE,121,5.0,9.0,82,0.00,,,0.00,WUHU216DAVISVP2,2013-09-28 05:15:00,
2013-09-28 01:18:00,57.7,52.3,29.30,ESE,104,4.0,9.0,82,0.00,,,0.00,WUHU216DAVISVP2,2013-09-28 05:18:00,
2013-09-28 01:19:00,57.7,52.3,29.30,ESE,110,1.0,9.0,82,0.00,,,0.00,WUHU216DAVISVP2,2013-09-28 05:19:00,
2013-09-28 01:20:00,57.6,52.2,29.30,SE,138,4.0,9.0,82,0.00,,,0.00,WUHU216DAVISVP2,2013-09-28 05:20:00,
2013-09-28 01:21:00,57.6,52.5,29.31,SE,127,5.0,9.0,83,0.00,,,0.00,WUHU216DAVISVP2,2013-09-28 05:21:00,
2013-09-28 01:23:00,57.5,52.4,29.31,ESE,110,2.0,9.0,83,0.00,,,0.00,WUHU216DAVISVP2,2013-09-28 05:23:00,
2013-09-28 01:24:00,57.5,52.4,29.31,East,99,3.0,9.0,83,0.00,,,0.00,WUHU216DAVISVP2,2013-09-28 05:24:00,
2013-09-28 01:25:00,57.5,52.4,29.31,East,96,2.0,9.0,83,0.00,,,0.00,WUHU216DAVISVP2,2013-09-28 05:25:00,
2013-09-28 01:26:00,57.5,52.4,29.30,SE,127,4.0,9.0,83,0.00,,,0.00,WUHU216DAVISVP2,2013-09-28 05:26:00,
2013-09-28 01:28:00,57.4,52.3,29.30,ENE,70,4.0,9.0,83,0.00,,,0.00,WUHU216DAVISVP2,2013-09-28 05:28:00,
2013-09-28 01:29:00,57.4,52.3,29.30,East,81,4.0,9.0,83,0.00,,,0.00,WUHU216DAVISVP2,2013-09-28 05:29:00,
2013-09-28 01:31:00,57.4,52.3,29.30,ESE,120,4.0,9.0,83,0.00,,,0.00,WUHU216DAVISVP2,2013-09-28 05:31:00,
2013-09-28 01:34:00,57.3,52.2,29.30,ESE,111,2.0,9.0,83,0.00,,,0.00,WUHU216DAVISVP2,2013-09-28 05:34:00,
2013-09-28 01:35:00,57.3,52.2,29.30,ESE,119,5.0,9.0,83,0.00,,,0.00,WUHU216DAVISVP2,2013-09-28 05:35:00,
2013-09-28 01:36:00,57.3,52.2,29.30,ESE,106,4.0,9.0,83,0.00,,,0.00,WUHU216DAVISVP2,2013-09-28 05:36:00,
2013-09-28 01:37:00,57.2,52.1,29.30,East,100,0.0,9.0,83,0.00,,,0.00,WUHU216DAVISVP2,2013-09-28 05:37:00,
2013-09-28 01:39:00,57.2,52.1,29.30,SE,124,1.0,9.0,83,0.00,,,0.00,WUHU216DAVISVP2,2013-09-28 05:39:00,
2013-09-28 01:40:00,57.2,52.1,29.30,ESE,112,2.0,9.0,83,0.00,,,0.00,WUHU216DAVISVP2,2013-09-28 05:40:00,
2013-09-28 01:41:00,57.2,52.4,29.30,ESE,122,4.0,9.0,84,0.00,,,0.00,WUHU216DAVISVP2,2013-09-28 05:41:00,
2013-09-28 01:42:00,57.1,52.3,29.30,SSE,166,4.0,9.0,84,0.00,,,0.00,WUHU216DAVISVP2,2013-09-28 05:42:00,
2013-09-28 01:44:00,57.1,52.3,29.30,ESE,112,4.0,9.0,84,0.00,,,0.00,WUHU216DAVISVP2,2013-09-28 05:44:00,
2013-09-28 01:45:00,57.0,52.2,29.30,SE,128,1.0,9.0,84,0.00,,,0.00,WUHU216DAVISVP2,2013-09-28 05:45:00,
2013-09-28 01:46:00,57.0,52.2,29.30,ESE,110,4.0,9.0,84,0.00,,,0.00,WUHU216DAVISVP2,2013-09-28 05:46:00,
2013-09-28 01:47:00,56.9,52.1,29.30,SE,133,5.0,9.0,84,0.00,,,0.00,WUHU216DAVISVP2,2013-09-28 05:47:00,
2013-09-28 01:49:00,56.9,52.1,29.30,ESE,107,6.0,8.0,84,0.00,,,0.00,WUHU216DAVISVP2,2013-09-28 05:49:00,
2013-09-28 01:50:00,56.9,52.1,29.30,ESE,119,6.0,8.0,84,0.00,,,0.00,WUHU216DAVISVP2,2013-09-28 05:50:00,
2013-09-28 01:51:00,56.8,52.0,29.30,East,97,5.0,8.0,84,0.00,,,0.00,WUHU216DAVISVP2,2013-09-28 05:51:00,
2013-09-28 01:52:00,56.8,52.0,29.30,SE,129,7.0,8.0,84,0.00,,,0.00,WUHU216DAVISVP2,2013-09-28 05:52:00,
2013-09-28 01:54:00,56.8,52.0,29.30,SE,131,6.0,8.0,84,0.00,,,0.00,WUHU216DAVISVP2,2013-09-28 05:54:00,
2013-09-28 01:55:00,56.8,52.0,29.30,ESE,120,4.0,8.0,84,0.00,,,0.00,WUHU216DAVISVP2,2013-09-28 05:55:00,
2013-09-28 01:56:00,56.7,51.9,29.30,ESE,117,3.0,8.0,84,0.00,,,0.00,WUHU216DAVISVP2,2013-09-28 05:56:00,
2013-09-28 01:57:00,56.7,51.9,29.30,ESE,105,6.0,8.0,84,0.00,,,0.00,WUHU216DAVISVP2,2013-09-28 05:57:00,
2013-09-28 01:59:00,56.7,52.2,29.30,ESE,110,2.0,8.0,85,0.00,,,0.00,WUHU216DAVISVP2,2013-09-28 05:59:00,
2013-09-28 02:00:00,56.6,52.1,29.30,East,100,3.0,8.0,85,0.00,,,0.00,WUHU216DAVISVP2,2013-09-28 06:00:00,
2013-09-28 02:01:00,56.6,52.1,29.30,ESE,103,6.0,8.0,85,0.00,,,0.00,WUHU216DAVISVP2,2013-09-28 06:01:00,
2013-09-28 02:02:00,56.6,52.1,29.30,ESE,110,4.0,8.0,85,0.00,,,0.00,WUHU216DAVISVP2,2013-09-28 06:02:00,
2013-09-28 02:04:00,56.6,52.1,29.30,ESE,112,4.0,8.0,85,0.00,,,0.00,WUHU216DAVISVP2,2013-09-28 06:04:00,
2013-09-28 02:05:00,56.5,52.0,29.30,ESE,110,3.0,8.0,85,0.00,,,0.00,WUHU216DAVISVP2,2013-09-28 06:05:00,
2013-09-28 02:06:00,56.5,52.0,29.30,ESE,109,5.0,8.0,85,0.00,,,0.00,WUHU216DAVISVP2,2013-09-28 06:06:00,
2013-09-28 02:07:00,56.5,52.0,29.30,ESE,108,4.0,8.0,85,0.00,,,0.00,WUHU216DAVISVP2,2013-09-28 06:07:00,
2013-09-28 02:09:00,56.4,51.9,29.30,ESE,108,3.0,8.0,85,0.00,,,0.00,WUHU216DAVISVP2,2013-09-28 06:09:00,
2013-09-28 02:11:00,56.4,51.9,29.30,SSE,156,2.0,8.0,85,0.00,,,0.00,WUHU216DAVISVP2,2013-09-28 06:11:00,
2013-09-28 02:12:00,56.4,51.9,29.30,ESE,108,4.0,8.0,85,0.00,,,0.00,WUHU216DAVISVP2,2013-09-28 06:12:00,
2013-09-28 02:13:00,56.3,51.8,29.30,SE,130,1.0,8.0,85,0.00,,,0.00,WUHU216DAVISVP2,2013-09-28 06:13:00,
2013-09-28 02:14:00,56.3,51.8,29.30,ESE,116,4.0,8.0,85,0.00,,,0.00,WUHU216DAVISVP2,2013-09-28 06:14:00,
2013-09-28 02:16:00,56.3,51.8,29.30,ESE,116,2.0,8.0,85,0.00,,,0.00,WUHU216DAVISVP2,2013-09-28 06:16:00,
2013-09-28 02:18:00,56.2,51.8,29.30,East,100,2.0,8.0,85,0.00,,,0.00,WUHU216DAVISVP2,2013-09-28 06:18:00,
2013-09-28 02:19:00,56.1,52.0,29.31,SE,145,4.0,8.0,86,0.00,,,0.00,WUHU216DAVISVP2,2013-09-28 06:19:00,
2013-09-28 02:21:00,56.0,51.9,29.31,ESE,109,2.0,8.0,86,0.00,,,0.00,WUHU216DAVISVP2,2013-09-28 06:21:00,
2013-09-28 02:23:00,56.0,51.9,29.30,SE,127,6.0,8.0,86,0.00,,,0.00,WUHU216DAVISVP2,2013-09-28 06:23:00,
2013-09-28 02:24:00,56.0,51.9,29.30,ESE,103,5.0,8.0,86,0.00,,,0.00,WUHU216DAVISVP2,2013-09-28 06:24:00,
2013-09-28 02:26:00,55.9,51.8,29.30,SE,134,5.0,8.0,86,0.00,,,0.00,WUHU216DAVISVP2,2013-09-28 06:26:00,
2013-09-28 02:28:00,55.9,51.8,29.30,SE,131,2.0,8.0,86,0.00,,,0.00,WUHU216DAVISVP2,2013-09-28 06:28:00,
2013-09-28 02:29:00,55.8,51.7,29.30,SSE,155,6.0,8.0,86,0.00,,,0.00,WUHU216DAVISVP2,2013-09-28 06:29:00,
2013-09-28 02:31:00,55.7,51.6,29.30,ESE,123,4.0,8.0,86,0.00,,,0.00,WUHU216DAVISVP2,2013-09-28 06:31:00,
2013-09-28 02:33:00,55.7,51.6,29.30,SE,130,4.0,8.0,86,0.00,,,0.00,WUHU216DAVISVP2,2013-09-28 06:33:00,
2013-09-28 02:34:00,55.7,51.6,29.30,ESE,110,3.0,8.0,86,0.00,,,0.00,WUHU216DAVISVP2,2013-09-28 06:34:00,
2013-09-28 02:36:00,55.6,51.8,29.30,ESE,122,4.0,8.0,87,0.00,,,0.00,WUHU216DAVISVP2,2013-09-28 06:36:00,
2013-09-28 02:38:00,55.5,51.7,29.30,ESE,121,4.0,9.0,87,0.00,,,0.00,WUHU216DAVISVP2,2013-09-28 06:38:00,
2013-09-28 02:39:00,55.5,51.7,29.30,ESE,116,0.0,9.0,87,0.00,,,0.00,WUHU216DAVISVP2,2013-09-28 06:39:00,
2013-09-28 02:40:00,55.5,51.7,29.30,ESE,116,0.0,9.0,87,0.00,,,0.00,WUHU216DAVISVP2,2013-09-28 06:40:00,
2013-09-28 02:41:00,55.4,51.6,29.30,ESE,110,4.0,9.0,87,0.00,,,0.00,WUHU216DAVISVP2,2013-09-28 06:41:00,
2013-09-28 02:44:00,55.3,51.5,29.30,ESE,118,5.0,9.0,87,0.00,,,0.00,WUHU216DAVISVP2,2013-09-28 06:44:00,
2013-09-28 02:45:00,55.3,51.5,29.30,ESE,110,1.0,9.0,87,0.00,,,0.00,WUHU216DAVISVP2,2013-09-28 06:45:00,
2013-09-28 02:47:00,55.2,51.4,29.30,ESE,110,1.0,9.0,87,0.00,,,0.00,WUHU216DAVISVP2,2013-09-28 06:47:00,
2013-09-28 02:49:00,55.2,51.4,29.30,ESE,116,1.0,9.0,87,0.00,,,0.00,WUHU216DAVISVP2,2013-09-28 06:49:00,
2013-09-28 02:50:00,55.1,51.3,29.30,ESE,103,3.0,9.0,87,0.00,,,0.00,WUHU216DAVISVP2,2013-09-28 06:50:00,
2013-09-28 02:52:00,55.0,51.5,29.30,ESE,116,4.0,9.0,88,0.00,,,0.00,WUHU216DAVISVP2,2013-09-28 06:52:00,
2013-09-28 02:53:00,55.0,51.5,29.30,ESE,107,1.0,9.0,88,0.00,,,0.00,WUHU216DAVISVP2,2013-09-28 06:53:00,
2013-09-28 02:54:00,55.0,51.5,29.30,ESE,118,3.0,9.0,88,0.00,,,0.00,WUHU216DAVISVP2,2013-09-28 06:54:00,
2013-09-28 02:56:00,54.9,51.4,29.30,SE,133,0.0,6.0,88,0.00,,,0.00,WUHU216DAVISVP2,2013-09-28 06:56:00,
2013-09-28 02:57:00,54.9,51.4,29.30,SE,133,0.0,6.0,88,0.00,,,0.00,WUHU216DAVISVP2,2013-09-28 06:57:00,
2013-09-28 02:58:00,54.9,51.4,29.30,SE,133,0.0,6.0,88,0.00,,,0.00,WUHU216DAVISVP2,2013-09-28 06:58:00,
2013-09-28 03:00:00,54.8,51.3,29.30,SE,133,0.0,6.0,88,0.00,,,0.00,WUHU216DAVISVP2,2013-09-28 07:00:00,
2013-09-28 03:01:00,54.8,51.3,29.30,SSE,147,2.0,6.0,88,0.00,,,0.00,WUHU216DAVISVP2,2013-09-28 07:01:00,
2013-09-28 03:02:00,54.8,51.3,29.30,ESE,107,4.0,6.0,88,0.00,,,0.00,WUHU216DAVISVP2,2013-09-28 07:02:00,
2013-09-28 03:03:00,54.7,51.2,29.30,ESE,111,0.0,6.0,88,0.00,,,0.00,WUHU216DAVISVP2,2013-09-28 07:03:00,
2013-09-28 03:05:00,54.7,51.2,29.30,SSE,164,0.0,6.0,88,0.00,,,0.00,WUHU216DAVISVP2,2013-09-28 07:05:00,
2013-09-28 03:06:00,54.6,51.4,29.30,ESE,114,0.0,6.0,89,0.00,,,0.00,WUHU216DAVISVP2,2013-09-28 07:06:00,
2013-09-28 03:07:00,54.6,51.4,29.30,East,96,0.0,6.0,89,0.00,,,0.00,WUHU216DAVISVP2,2013-09-28 07:07:00,
2013-09-28 03:08:00,54.6,51.4,29.30,ESE,113,4.0,6.0,89,0.00,,,0.00,WUHU216DAVISVP2,2013-09-28 07:08:00,
2013-09-28 03:10:00,54.5,51.3,29.30,SE,125,0.0,6.0,89,0.00,,,0.00,WUHU216DAVISVP2,2013-09-28 07:10:00,
2013-09-28 03:11:00,54.5,51.3,29.30,ESE,115,4.0,6.0,89,0.00,,,0.00,WUHU216DAVISVP2,2013-09-28 07:11:00,
2013-09-28 03:12:00,54.5,51.3,29.31,SSE,154,0.0,6.0,89,0.00,,,0.00,WUHU216DAVISVP2,2013-09-28 07:12:00,
2013-09-28 03:13:00,54.4,51.2,29.31,ESE,114,0.0,6.0,89,0.00,,,0.00,WUHU216DAVISVP2,2013-09-28 07:13:00,
2013-09-28 03:15:00,54.4,51.2,29.31,ESE,107,1.0,6.0,89,0.00,,,0.00,WUHU216DAVISVP2,2013-09-28 07:15:00,
2013-09-28 03:16:00,54.4,51.2,29.31,ESE,107,0.0,6.0,89,0.00,,,0.00,WUHU216DAVISVP2,2013-09-28 07:16:00,
2013-09-28 03:18:00,54.4,51.2,29.31,ESE,103,0.0,6.0,89,0.00,,,0.00,WUHU216DAVISVP2,2013-09-28 07:18:00,
2013-09-28 03:21:00,54.3,51.1,29.30,SE,127,2.0,6.0,89,0.00,,,0.00,WUHU216DAVISVP2,2013-09-28 07:21:00,
2013-09-28 03:22:00,54.3,51.1,29.30,ESE,103,1.0,6.0,89,0.00,,,0.00,WUHU216DAVISVP2,2013-09-28 07:22:00,
2013-09-28 03:23:00,54.3,51.1,29.30,ESE,114,2.0,6.0,89,0.00,,,0.00,WUHU216DAVISVP2,2013-09-28 07:23:00,
2013-09-28 03:26:00,54.2,51.0,29.30,ESE,123,4.0,6.0,89,0.00,,,0.00,WUHU216DAVISVP2,2013-09-28 07:26:00,
2013-09-28 03:27:00,54.2,51.3,29.30,ESE,106,0.0,7.0,90,0.00,,,0.00,WUHU216DAVISVP2,2013-09-28 07:27:00,
2013-09-28 03:28:00,54.2,51.3,29.30,ESE,108,4.0,7.0,90,0.00,,,0.00,WUHU216DAVISVP2,2013-09-28 07:28:00,
2013-09-28 03:29:00,54.2,51.3,29.30,ESE,108,1.0,7.0,90,0.00,,,0.00,WUHU216DAVISVP2,2013-09-28 07:29:00,
2013-09-28 03:31:00,54.1,51.2,29.30,SE,141,0.0,7.0,90,0.00,,,0.00,WUHU216DAVISVP2,2013-09-28 07:31:00,
2013-09-28 03:32:00,54.1,51.2,29.30,SE,141,1.0,7.0,90,0.00,,,0.00,WUHU216DAVISVP2,2013-09-28 07:32:00,
2013-09-28 03:33:00,54.1,50.9,29.30,ESE,111,4.0,7.0,89,0.00,,,0.00,WUHU216DAVISVP2,2013-09-28 07:33:00,
2013-09-28 03:34:00,54.1,51.2,29.30,ESE,112,2.0,7.0,90,0.00,,,0.00,WUHU216DAVISVP2,2013-09-28 07:34:00,
2013-09-28 03:36:00,54.0,51.1,29.30,East,97,2.0,7.0,90,0.00,,,0.00,WUHU216DAVISVP2,2013-09-28 07:36:00,
2013-09-28 03:37:00,54.0,51.1,29.30,ESE,113,2.0,7.0,90,0.00,,,0.00,WUHU216DAVISVP2,2013-09-28 07:37:00,
2013-09-28 03:38:00,53.9,51.0,29.30,ESE,113,0.0,7.0,90,0.00,,,0.00,WUHU216DAVISVP2,2013-09-28 07:38:00,
2013-09-28 03:39:00,53.9,51.0,29.30,ESE,113,0.0,7.0,90,0.00,,,0.00,WUHU216DAVISVP2,2013-09-28 07:39:00,
2013-09-28 03:41:00,53.9,51.0,29.30,SE,124,0.0,7.0,90,0.00,,,0.00,WUHU216DAVISVP2,2013-09-28 07:41:00,
2013-09-28 03:43:00,53.9,51.0,29.30,ESE,118,1.0,7.0,90,0.00,,,0.00,WUHU216DAVISVP2,2013-09-28 07:43:00,
2013-09-28 03:44:00,53.9,51.0,29.30,South,174,0.0,7.0,90,0.00,,,0.00,WUHU216DAVISVP2,2013-09-28 07:44:00,
2013-09-28 03:46:00,53.9,51.0,29.30,East,87,1.0,6.0,90,0.00,,,0.00,WUHU216DAVISVP2,2013-09-28 07:46:00,
2013-09-28 03:48:00,53.8,50.9,29.30,ESE,110,0.0,6.0,90,0.00,,,0.00,WUHU216DAVISVP2,2013-09-28 07:48:00,
2013-09-28 03:49:00,53.8,50.9,29.30,ESE,110,1.0,6.0,90,0.00,,,0.00,WUHU216DAVISVP2,2013-09-28 07:49:00,
2013-09-28 03:51:00,53.7,50.8,29.30,SSE,166,2.0,6.0,90,0.00,,,0.00,WUHU216DAVISVP2,2013-09-28 07:51:00,
2013-09-28 03:54:00,53.7,50.8,29.30,SSE,157,0.0,6.0,90,0.00,,,0.00,WUHU216DAVISVP2,2013-09-28 07:54:00,
2013-09-28 03:56:00,53.6,50.7,29.30,SSE,156,0.0,6.0,90,0.00,,,0.00,WUHU216DAVISVP2,2013-09-28 07:56:00,
2013-09-28 03:57:00,53.6,50.7,29.30,SSE,156,0.0,6.0,90,0.00,,,0.00,WUHU216DAVISVP2,2013-09-28 07:57:00,
2013-09-28 03:59:00,53.6,50.7,29.30,SSE,156,1.0,6.0,90,0.00,,,0.00,WUHU216DAVISVP2,2013-09-28 07:59:00,
2013-09-28 04:02:00,53.6,51.0,29.30,SE,137,2.0,6.0,91,0.00,,,0.00,WUHU216DAVISVP2,2013-09-28 08:02:00,
2013-09-28 04:04:00,53.6,51.0,29.30,SE,131,0.0,6.0,91,0.00,,,0.00,WUHU216DAVISVP2,2013-09-28 08:04:00,
2013-09-28 04:05:00,53.5,50.9,29.30,SE,131,0.0,6.0,91,0.00,,,0.00,WUHU216DAVISVP2,2013-09-28 08:05:00,
2013-09-28 04:07:00,53.5,50.9,29.30,SE,131,0.0,6.0,91,0.00,,,0.00,WUHU216DAVISVP2,2013-09-28 08:07:00,
2013-09-28 04:08:00,53.5,50.9,29.30,SE,131,0.0,6.0,91,0.00,,,0.00,WUHU216DAVISVP2,2013-09-28 08:08:00,
2013-09-28 04:09:00,53.5,50.9,29.30,SE,131,0.0,6.0,91,0.00,,,0.00,WUHU216DAVISVP2,2013-09-28 08:09:00,
2013-09-28 04:10:00,53.4,50.8,29.30,SE,131,0.0,2.0,91,0.00,,,0.00,WUHU216DAVISVP2,2013-09-28 08:10:00,
2013-09-28 04:12:00,53.4,50.8,29.30,SE,131,0.0,2.0,91,0.00,,,0.00,WUHU216DAVISVP2,2013-09-28 08:12:00,
2013-09-28 04:13:00,53.4,50.8,29.30,SE,131,0.0,2.0,91,0.00,,,0.00,WUHU216DAVISVP2,2013-09-28 08:13:00,
2013-09-28 04:14:00,53.4,50.8,29.30,SE,129,1.0,4.0,91,0.00,,,0.00,WUHU216DAVISVP2,2013-09-28 08:14:00,
2013-09-28 04:15:00,53.4,50.8,29.30,SE,129,0.0,4.0,91,0.00,,,0.00,WUHU216DAVISVP2,2013-09-28 08:15:00,
2013-09-28 04:17:00,53.3,50.7,29.30,SE,129,0.0,4.0,91,0.00,,,0.00,WUHU216DAVISVP2,2013-09-28 08:17:00,
2013-09-28 04:19:00,53.3,50.7,29.30,SE,129,0.0,4.0,91,0.00,,,0.00,WUHU216DAVISVP2,2013-09-28 08:19:00,
2013-09-28 04:20:00,53.3,50.7,29.30,SE,129,0.0,4.0,91,0.00,,,0.00,WUHU216DAVISVP2,2013-09-28 08:20:00,
2013-09-28 04:22:00,53.2,50.6,29.29,SE,129,0.0,4.0,91,0.00,,,0.00,WUHU216DAVISVP2,2013-09-28 08:22:00,
2013-09-28 04:24:00,53.2,50.6,29.29,ESE,115,2.0,4.0,91,0.00,,,0.00,WUHU216DAVISVP2,2013-09-28 08:24:00,
2013-09-28 04:25:00,53.2,50.6,29.29,SE,126,1.0,4.0,91,0.00,,,0.00,WUHU216DAVISVP2,2013-09-28 08:25:00,
2013-09-28 04:27:00,53.3,50.7,29.29,ESE,116,0.0,5.0,91,0.00,,,0.00,WUHU216DAVISVP2,2013-09-28 08:27:00,
2013-09-28 04:29:00,53.2,50.6,29.29,ESE,116,0.0,5.0,91,0.00,,,0.00,WUHU216DAVISVP2,2013-09-28 08:29:00,
2013-09-28 04:30:00,53.2,50.6,29.29,ESE,116,2.0,5.0,91,0.00,,,0.00,WUHU216DAVISVP2,2013-09-28 08:30:00,
2013-09-28 04:32:00,53.2,50.6,29.29,SE,133,0.0,5.0,91,0.00,,,0.00,WUHU216DAVISVP2,2013-09-28 08:32:00,
2013-09-28 04:35:00,53.2,50.9,29.29,ESE,112,1.0,5.0,92,0.00,,,0.00,WUHU216DAVISVP2,2013-09-28 08:35:00,
2013-09-28 04:37:00,53.1,50.8,29.29,SE,133,2.0,7.0,92,0.00,,,0.00,WUHU216DAVISVP2,2013-09-28 08:37:00,
2013-09-28 04:40:00,53.1,50.8,29.30,SE,134,0.0,7.0,92,0.00,,,0.00,WUHU216DAVISVP2,2013-09-28 08:40:00,
2013-09-28 04:42:00,53.0,50.7,29.29,ESE,117,3.0,7.0,92,0.00,,,0.00,WUHU216DAVISVP2,2013-09-28 08:42:00,
2013-09-28 04:45:00,53.0,50.7,29.29,ESE,114,2.0,7.0,92,0.00,,,0.00,WUHU216DAVISVP2,2013-09-28 08:45:00,
2013-09-28 04:48:00,53.0,50.7,29.29,ESE,119,4.0,7.0,92,0.00,,,0.00,WUHU216DAVISVP2,2013-09-28 08:48:00,
2013-09-28 04:50:00,53.0,50.7,29.29,SE,137,0.0,7.0,92,0.00,,,0.00,WUHU216DAVISVP2,2013-09-28 08:50:00,
2013-09-28 04:51:00,52.9,50.6,29.29,ESE,120,2.0,7.0,92,0.00,,,0.00,WUHU216DAVISVP2,2013-09-28 08:51:00,
2013-09-28 04:53:00,52.9,50.6,29.30,ESE,122,1.0,7.0,92,0.00,,,0.00,WUHU216DAVISVP2,2013-09-28 08:53:00,
2013-09-28 04:55:00,52.8,50.5,29.30,ESE,104,0.0,7.0,92,0.00,,,0.00,WUHU216DAVISVP2,2013-09-28 08:55:00,
2013-09-28 04:56:00,52.8,50.5,29.30,ESE,104,0.0,7.0,92,0.00,,,0.00,WUHU216DAVISVP2,2013-09-28 08:56:00,
2013-09-28 04:58:00,52.8,50.5,29.30,SE,131,2.0,7.0,92,0.00,,,0.00,WUHU216DAVISVP2,2013-09-28 08:58:00,
2013-09-28 05:00:00,52.7,50.4,29.30,ESE,102,0.0,7.0,92,0.00,,,0.00,WUHU216DAVISVP2,2013-09-28 09:00:00,
2013-09-28 05:01:00,52.7,50.4,29.30,ESE,102,0.0,7.0,92,0.00,,,0.00,WUHU216DAVISVP2,2013-09-28 09:01:00,
2013-09-28 05:03:00,52.7,50.4,29.30,SE,125,4.0,7.0,92,0.00,,,0.00,WUHU216DAVISVP2,2013-09-28 09:03:00,
2013-09-28 05:05:00,52.6,50.3,29.30,ESE,114,1.0,7.0,92,0.00,,,0.00,WUHU216DAVISVP2,2013-09-28 09:05:00,
2013-09-28 05:06:00,52.6,50.3,29.30,ESE,114,1.0,7.0,92,0.00,,,0.00,WUHU216DAVISVP2,2013-09-28 09:06:00,
2013-09-28 05:08:00,52.5,50.2,29.30,SE,144,3.0,7.0,92,0.00,,,0.00,WUHU216DAVISVP2,2013-09-28 09:08:00,
2013-09-28 05:11:00,52.4,50.1,29.30,ESE,121,4.0,7.0,92,0.00,,,0.00,WUHU216DAVISVP2,2013-09-28 09:11:00,
2013-09-28 05:12:00,52.4,50.1,29.30,ESE,111,2.0,6.0,92,0.00,,,0.00,WUHU216DAVISVP2,2013-09-28 09:12:00,
2013-09-28 05:13:00,52.4,50.1,29.30,SE,139,0.0,6.0,92,0.00,,,0.00,WUHU216DAVISVP2,2013-09-28 09:13:00,
2013-09-28 05:16:00,52.3,50.3,29.30,SE,133,1.0,6.0,93,0.00,,,0.00,WUHU216DAVISVP2,2013-09-28 09:16:00,
2013-09-28 05:17:00,52.3,50.3,29.30,SE,142,0.0,6.0,93,0.00,,,0.00,WUHU216DAVISVP2,2013-09-28 09:17:00,
2013-09-28 05:18:00,52.3,50.0,29.30,SSE,151,2.0,6.0,92,0.00,,,0.00,WUHU216DAVISVP2,2013-09-28 09:18:00,
2013-09-28 05:21:00,52.2,49.9,29.30,ESE,122,4.0,6.0,92,0.00,,,0.00,WUHU216DAVISVP2,2013-09-28 09:21:00,
2013-09-28 05:22:00,52.2,50.2,29.30,SE,129,4.0,6.0,93,0.00,,,0.00,WUHU216DAVISVP2,2013-09-28 09:22:00,
2013-09-28 05:23:00,52.2,50.2,29.30,ESE,108,6.0,6.0,93,0.00,,,0.00,WUHU216DAVISVP2,2013-09-28 09:23:00,
2013-09-28 05:26:00,52.2,50.2,29.30,East,92,2.0,6.0,93,0.00,,,0.00,WUHU216DAVISVP2,2013-09-28 09:26:00,
2013-09-28 05:27:00,52.2,50.2,29.30,ESE,114,1.0,6.0,93,0.00,,,0.00,WUHU216DAVISVP2,2013-09-28 09:27:00,
2013-09-28 05:28:00,52.1,50.1,29.30,SE,127,2.0,6.0,93,0.00,,,0.00,WUHU216DAVISVP2,2013-09-28 09:28:00,
2013-09-28 05:31:00,52.1,50.1,29.30,ESE,118,5.0,6.0,93,0.00,,,0.00,WUHU216DAVISVP2,2013-09-28 09:31:00,
2013-09-28 05:32:00,52.1,50.1,29.30,ESE,121,7.0,7.0,93,0.00,,,0.00,WUHU216DAVISVP2,2013-09-28 09:32:00,
2013-09-28 05:34:00,52.0,50.0,29.30,ESE,119,1.0,7.0,93,0.00,,,0.00,WUHU216DAVISVP2,2013-09-28 09:34:00,
2013-09-28 05:37:00,51.9,49.9,29.30,SE,127,2.0,7.0,93,0.00,,,0.00,WUHU216DAVISVP2,2013-09-28 09:37:00,
2013-09-28 05:38:00,51.9,49.9,29.30,SSE,160,2.0,7.0,93,0.00,,,0.00,WUHU216DAVISVP2,2013-09-28 09:38:00,
2013-09-28 05:39:00,51.9,49.9,29.30,ESE,110,2.0,7.0,93,0.00,,,0.00,WUHU216DAVISVP2,2013-09-28 09:39:00,
2013-09-28 05:42:00,51.8,49.8,29.30,SSE,152,2.0,7.0,93,0.00,,,0.00,WUHU216DAVISVP2,2013-09-28 09:42:00,
2013-09-28 05:43:00,51.8,49.8,29.30,SSE,152,0.0,7.0,93,0.00,,,0.00,WUHU216DAVISVP2,2013-09-28 09:43:00,
2013-09-28 05:44:00,51.8,49.8,29.30,SE,130,4.0,7.0,93,0.00,,,0.00,WUHU216DAVISVP2,2013-09-28 09:44:00,
2013-09-28 05:47:00,51.7,49.7,29.30,ESE,119,2.0,7.0,93,0.00,,,0.00,WUHU216DAVISVP2,2013-09-28 09:47:00,
2013-09-28 05:48:00,51.7,49.7,29.30,ESE,119,0.0,7.0,93,0.00,,,0.00,WUHU216DAVISVP2,2013-09-28 09:48:00,
2013-09-28 05:49:00,51.7,49.7,29.30,East,98,1.0,7.0,93,0.00,,,0.00,WUHU216DAVISVP2,2013-09-28 09:49:00,
2013-09-28 05:52:00,51.7,49.7,29.30,SE,137,0.0,5.0,93,0.00,,,0.00,WUHU216DAVISVP2,2013-09-28 09:52:00,
2013-09-28 05:53:00,51.6,49.6,29.30,SE,137,0.0,5.0,93,0.00,,,0.00,WUHU216DAVISVP2,2013-09-28 09:53:00,
2013-09-28 05:54:00,51.6,49.6,29.30,SE,135,0.0,5.0,93,0.00,,,0.00,WUHU216DAVISVP2,2013-09-28 09:54:00,
2013-09-28 05:57:00,51.6,49.6,29.30,SE,126,0.0,5.0,93,0.00,,,0.00,WUHU216DAVISVP2,2013-09-28 09:57:00,
2013-09-28 05:58:00,51.5,49.5,29.30,SE,128,4.0,5.0,93,0.00,,,0.00,WUHU216DAVISVP2,2013-09-28 09:58:00,
2013-09-28 05:59:00,51.5,49.5,29.30,ESE,115,5.0,5.0,93,0.00,,,0.00,WUHU216DAVISVP2,2013-09-28 09:59:00,
2013-09-28 06:02:00,51.5,49.5,29.30,ESE,110,0.0,5.0,93,0.00,,,0.00,WUHU216DAVISVP2,2013-09-28 10:02:00,
2013-09-28 06:03:00,51.5,49.5,29.30,ESE,110,4.0,5.0,93,0.00,,,0.00,WUHU216DAVISVP2,2013-09-28 10:03:00,
2013-09-28 06:04:00,51.5,49.5,29.30,ESE,118,0.0,5.0,93,0.00,,,0.00,WUHU216DAVISVP2,2013-09-28 10:04:00,
2013-09-28 06:05:00,51.4,49.4,29.31,ESE,114,4.0,5.0,93,0.00,,,0.00,WUHU216DAVISVP2,2013-09-28 10:05:00,
2013-09-28 06:07:00,51.5,49.5,29.31,ESE,111,1.0,5.0,93,0.00,,,0.00,WUHU216DAVISVP2,2013-09-28 10:07:00,
2013-09-28 06:08:00,51.4,49.4,29.31,SSE,149,2.0,5.0,93,0.00,,,0.00,WUHU216DAVISVP2,2013-09-28 10:08:00,
2013-09-28 06:09:00,51.4,49.4,29.31,SSE,150,0.0,5.0,93,0.00,,,0.00,WUHU216DAVISVP2,2013-09-28 10:09:00,
2013-09-28 06:10:00,51.4,49.7,29.31,ESE,113,2.0,5.0,94,0.00,,,0.00,WUHU216DAVISVP2,2013-09-28 10:10:00,
2013-09-28 06:12:00,51.4,49.7,29.31,ESE,110,1.0,5.0,94,0.00,,,0.00,WUHU216DAVISVP2,2013-09-28 10:12:00,
2013-09-28 06:13:00,51.4,49.4,29.31,ESE,120,4.0,5.0,93,0.00,,,0.00,WUHU216DAVISVP2,2013-09-28 10:13:00,
2013-09-28 06:14:00,51.4,49.4,29.31,East,100,1.0,5.0,93,0.00,,,0.00,WUHU216DAVISVP2,2013-09-28 10:14:00,
2013-09-28 06:15:00,51.4,49.4,29.31,East,101,0.0,5.0,93,0.00,,,0.00,WUHU216DAVISVP2,2013-09-28 10:15:00,
2013-09-28 06:18:00,51.4,49.7,29.31,ESE,120,4.0,5.0,94,0.00,,,0.00,WUHU216DAVISVP2,2013-09-28 10:18:00,
2013-09-28 06:19:00,51.4,49.4,29.31,SE,128,3.0,5.0,93,0.00,,,0.00,WUHU216DAVISVP2,2013-09-28 10:19:00,
2013-09-28 06:20:00,51.4,49.7,29.31,ESE,113,1.0,5.0,94,0.00,,,0.00,WUHU216DAVISVP2,2013-09-28 10:20:00,
2013-09-28 06:23:00,51.3,49.6,29.31,SE,129,1.0,5.0,94,0.00,,,0.00,WUHU216DAVISVP2,2013-09-28 10:23:00,
2013-09-28 06:24:00,51.3,49.6,29.31,SE,129,0.0,5.0,94,0.00,,,0.00,WUHU216DAVISVP2,2013-09-28 10:24:00,
2013-09-28 06:25:00,51.3,49.6,29.32,SE,127,1.0,5.0,94,0.00,,,0.00,WUHU216DAVISVP2,2013-09-28 10:25:00,
2013-09-28 06:26:00,51.3,49.6,29.32,SE,127,1.0,5.0,94,0.00,,,0.00,WUHU216DAVISVP2,2013-09-28 10:26:00,
2013-09-28 06:28:00,51.3,49.6,29.32,SSE,150,0.0,5.0,94,0.00,,,0.00,WUHU216DAVISVP2,2013-09-28 10:28:00,
2013-09-28 06:29:00,51.3,49.6,29.32,SSE,150,0.0,5.0,94,0.00,,,0.00,WUHU216DAVISVP2,2013-09-28 10:29:00,
2013-09-28 06:30:00,51.3,49.6,29.31,ESE,112,0.0,5.0,94,0.00,,,0.00,WUHU216DAVISVP2,2013-09-28 10:30:00,
2013-09-28 06:31:00,51.3,49.6,29.32,ESE,112,0.0,5.0,94,0.00,,,0.00,WUHU216DAVISVP2,2013-09-28 10:31:00,
2013-09-28 06:34:00,51.2,49.5,29.31,ESE,112,0.0,5.0,94,0.00,,,0.00,WUHU216DAVISVP2,2013-09-28 10:34:00,
2013-09-28 06:35:00,51.2,49.5,29.31,ESE,112,0.0,5.0,94,0.00,,,0.00,WUHU216DAVISVP2,2013-09-28 10:35:00,
2013-09-28 06:36:00,51.2,49.5,29.31,ESE,112,0.0,5.0,94,0.00,,,0.00,WUHU216DAVISVP2,2013-09-28 10:36:00,
2013-09-28 06:39:00,51.1,49.4,29.31,ESE,112,0.0,5.0,94,0.00,,,0.00,WUHU216DAVISVP2,2013-09-28 10:39:00,
2013-09-28 06:40:00,51.1,49.4,29.31,ESE,112,0.0,5.0,94,0.00,,,0.00,WUHU216DAVISVP2,2013-09-28 10:40:00,
2013-09-28 06:42:00,51.1,49.4,29.31,ESE,112,0.0,4.0,94,0.00,,,0.00,WUHU216DAVISVP2,2013-09-28 10:42:00,
2013-09-28 06:44:00,51.0,49.3,29.31,ESE,112,0.0,4.0,94,0.00,,,0.00,WUHU216DAVISVP2,2013-09-28 10:44:00,
2013-09-28 06:45:00,51.0,49.3,29.31,ESE,112,0.0,4.0,94,0.00,,,0.00,WUHU216DAVISVP2,2013-09-28 10:45:00,
2013-09-28 06:47:00,50.9,49.2,29.31,ESE,112,0.0,1.0,94,0.00,,,0.00,WUHU216DAVISVP2,2013-09-28 10:47:00,
2013-09-28 06:49:00,50.9,49.2,29.32,ESE,112,0.0,2.0,94,0.00,,,0.00,WUHU216DAVISVP2,2013-09-28 10:49:00,
2013-09-28 06:50:00,50.9,49.2,29.32,ESE,112,0.0,2.0,94,0.00,,,0.00,WUHU216DAVISVP2,2013-09-28 10:50:00,
2013-09-28 06:52:00,50.9,49.2,29.32,ESE,112,0.0,2.0,94,0.00,,,0.00,WUHU216DAVISVP2,2013-09-28 10:52:00,
2013-09-28 06:54:00,51.0,49.3,29.32,ESE,112,0.0,2.0,94,0.00,,,0.00,WUHU216DAVISVP2,2013-09-28 10:54:00,
2013-09-28 06:55:00,51.0,49.3,29.32,SSE,147,2.0,2.0,94,0.00,,,0.00,WUHU216DAVISVP2,2013-09-28 10:55:00,
2013-09-28 06:56:00,51.0,49.3,29.32,SE,135,0.0,4.0,94,0.00,,,0.00,WUHU216DAVISVP2,2013-09-28 10:56:00,
2013-09-28 06:58:00,51.1,49.4,29.32,SE,132,1.0,4.0,94,0.00,,,0.00,WUHU216DAVISVP2,2013-09-28 10:58:00,
2013-09-28 06:59:00,51.1,49.4,29.32,SE,132,2.0,4.0,94,0.00,,,0.00,WUHU216DAVISVP2,2013-09-28 10:59:00,
2013-09-28 07:00:00,51.1,49.4,29.32,SE,132,2.0,4.0,94,0.00,,,0.00,WUHU216DAVISVP2,2013-09-28 11:00:00,
2013-09-28 07:01:00,51.2,49.5,29.32,SE,132,2.0,5.0,94,0.00,,,0.00,WUHU216DAVISVP2,2013-09-28 11:01:00,
2013-09-28 07:04:00,51.2,49.5,29.32,SE,131,4.0,5.0,94,0.00,,,0.00,WUHU216DAVISVP2,2013-09-28 11:04:00,
2013-09-28 07:05:00,51.2,49.5,29.32,SE,129,2.0,5.0,94,0.00,,,0.00,WUHU216DAVISVP2,2013-09-28 11:05:00,
2013-09-28 07:06:00,51.2,49.5,29.32,SE,132,2.0,5.0,94,0.00,,,0.00,WUHU216DAVISVP2,2013-09-28 11:06:00,
2013-09-28 07:09:00,51.1,49.4,29.32,SE,125,1.0,5.0,94,0.00,,,0.00,WUHU216DAVISVP2,2013-09-28 11:09:00,
2013-09-28 07:10:00,51.1,49.4,29.32,SE,125,2.0,5.0,94,0.00,,,0.00,WUHU216DAVISVP2,2013-09-28 11:10:00,
2013-09-28 07:11:00,51.1,49.4,29.32,SE,134,0.0,5.0,94,0.00,,,0.00,WUHU216DAVISVP2,2013-09-28 11:11:00,
2013-09-28 07:12:00,51.1,49.4,29.31,SE,134,0.0,5.0,94,0.00,,,0.00,WUHU216DAVISVP2,2013-09-28 11:12:00,
2013-09-28 07:15:00,50.9,49.2,29.31,SE,135,0.0,5.0,94,0.00,,,0.00,WUHU216DAVISVP2,2013-09-28 11:15:00,
2013-09-28 07:16:00,50.9,49.2,29.31,SE,135,0.0,5.0,94,0.00,,,0.00,WUHU216DAVISVP2,2013-09-28 11:16:00,
2013-09-28 07:17:00,50.8,49.1,29.32,SE,135,0.0,5.0,94,0.00,,,0.00,WUHU216DAVISVP2,2013-09-28 11:17:00,
2013-09-28 07:20:00,50.8,49.1,29.32,SE,135,0.0,5.0,94,0.00,,,0.00,WUHU216DAVISVP2,2013-09-28 11:20:00,
2013-09-28 07:21:00,50.8,49.1,29.32,ESE,116,4.0,5.0,94,0.00,,,0.00,WUHU216DAVISVP2,2013-09-28 11:21:00,
2013-09-28 07:22:00,50.7,49.0,29.32,ESE,108,1.0,5.0,94,0.00,,,0.00,WUHU216DAVISVP2,2013-09-28 11:22:00,
2013-09-28 07:25:00,50.7,49.0,29.32,ESE,120,1.0,5.0,94,0.00,,,0.00,WUHU216DAVISVP2,2013-09-28 11:25:00,
2013-09-28 07:26:00,50.7,49.0,29.32,ESE,113,2.0,5.0,94,0.00,,,0.00,WUHU216DAVISVP2,2013-09-28 11:26:00,
2013-09-28 07:28:00,50.8,49.1,29.31,ESE,113,0.0,5.0,94,0.00,,,0.00,WUHU216DAVISVP2,2013-09-28 11:28:00,
2013-09-28 07:30:00,50.8,49.1,29.31,ESE,123,2.0,5.0,94,0.00,,,0.00,WUHU216DAVISVP2,2013-09-28 11:30:00,
2013-09-28 07:31:00,50.8,49.1,29.31,ESE,108,1.0,5.0,94,0.00,,,0.00,WUHU216DAVISVP2,2013-09-28 11:31:00,
2013-09-28 07:32:00,50.8,49.1,29.31,ESE,108,2.0,6.0,94,0.00,,,0.00,WUHU216DAVISVP2,2013-09-28 11:32:00,
2013-09-28 07:33:00,50.8,49.1,29.31,SSE,156,1.0,6.0,94,0.00,,,0.00,WUHU216DAVISVP2,2013-09-28 11:33:00,
2013-09-28 07:36:00,50.7,49.0,29.31,ESE,107,1.0,6.0,94,0.00,,,0.00,WUHU216DAVISVP2,2013-09-28 11:36:00,
2013-09-28 07:37:00,50.7,49.0,29.31,ESE,107,0.0,6.0,94,0.00,,,0.00,WUHU216DAVISVP2,2013-09-28 11:37:00,
2013-09-28 07:38:00,50.7,49.0,29.32,ESE,107,0.0,6.0,94,0.00,,,0.00,WUHU216DAVISVP2,2013-09-28 11:38:00,
2013-09-28 07:41:00,50.7,49.3,29.32,ESE,107,0.0,6.0,95,0.00,,,0.00,WUHU216DAVISVP2,2013-09-28 11:41:00,
2013-09-28 07:42:00,50.7,49.3,29.32,ESE,108,0.0,6.0,95,0.00,,,0.00,WUHU216DAVISVP2,2013-09-28 11:42:00,
2013-09-28 07:44:00,50.7,49.3,29.32,ESE,108,2.0,6.0,95,0.00,,,0.00,WUHU216DAVISVP2,2013-09-28 11:44:00,
2013-09-28 07:46:00,50.7,49.3,29.31,ESE,108,1.0,6.0,95,0.00,,,0.00,WUHU216DAVISVP2,2013-09-28 11:46:00,
2013-09-28 07:47:00,50.7,49.3,29.31,ESE,108,2.0,6.0,95,0.00,,,0.00,WUHU216DAVISVP2,2013-09-28 11:47:00,
2013-09-28 07:48:00,50.7,49.3,29.31,ESE,108,0.0,6.0,95,0.00,,,0.00,WUHU216DAVISVP2,2013-09-28 11:48:00,
2013-09-28 07:49:00,50.7,49.3,29.32,ESE,108,1.0,6.0,95,0.00,,,0.00,WUHU216DAVISVP2,2013-09-28 11:49:00,
2013-09-28 07:51:00,50.7,49.3,29.32,ESE,108,0.0,4.0,95,0.00,,,0.00,WUHU216DAVISVP2,2013-09-28 11:51:00,
2013-09-28 07:52:00,50.7,49.3,29.32,ESE,108,0.0,4.0,95,0.00,,,0.00,WUHU216DAVISVP2,2013-09-28 11:52:00,
2013-09-28 07:53:00,50.7,49.3,29.32,ESE,107,0.0,4.0,95,0.00,,,0.00,WUHU216DAVISVP2,2013-09-28 11:53:00,
2013-09-28 07:54:00,50.7,49.3,29.32,ESE,107,0.0,4.0,95,0.00,,,0.00,WUHU216DAVISVP2,2013-09-28 11:54:00,
2013-09-28 07:56:00,50.7,49.3,29.32,ESE,122,0.0,4.0,95,0.00,,,0.00,WUHU216DAVISVP2,2013-09-28 11:56:00,
2013-09-28 07:57:00,50.7,49.3,29.32,ESE,122,0.0,4.0,95,0.00,,,0.00,WUHU216DAVISVP2,2013-09-28 11:57:00,
2013-09-28 07:58:00,50.8,49.4,29.32,ESE,122,0.0,4.0,95,0.00,,,0.00,WUHU216DAVISVP2,2013-09-28 11:58:00,
2013-09-28 07:59:00,50.8,49.4,29.32,ESE,122,0.0,4.0,95,0.00,,,0.00,WUHU216DAVISVP2,2013-09-28 11:59:00,
2013-09-28 08:01:00,50.8,49.4,29.32,ESE,122,1.0,4.0,95,0.00,,,0.00,WUHU216DAVISVP2,2013-09-28 12:01:00,
2013-09-28 08:02:00,50.8,49.4,29.32,ESE,122,1.0,4.0,95,0.00,,,0.00,WUHU216DAVISVP2,2013-09-28 12:02:00,
2013-09-28 08:03:00,50.8,49.4,29.32,ESE,122,0.0,4.0,95,0.00,,,0.00,WUHU216DAVISVP2,2013-09-28 12:03:00,
2013-09-28 08:04:00,50.9,49.5,29.32,ESE,122,0.0,4.0,95,0.00,,,0.00,WUHU216DAVISVP2,2013-09-28 12:04:00,
2013-09-28 08:06:00,50.9,49.5,29.32,ESE,122,1.0,4.0,95,0.00,,,0.00,WUHU216DAVISVP2,2013-09-28 12:06:00,
2013-09-28 08:08:00,51.0,49.6,29.32,SE,142,0.0,4.0,95,0.00,,,0.00,WUHU216DAVISVP2,2013-09-28 12:08:00,
2013-09-28 08:10:00,51.0,49.6,29.32,SE,137,2.0,4.0,95,0.00,,,0.00,WUHU216DAVISVP2,2013-09-28 12:10:00,
2013-09-28 08:11:00,51.1,49.7,29.32,ESE,115,4.0,4.0,95,0.00,,,0.00,WUHU216DAVISVP2,2013-09-28 12:11:00,
2013-09-28 08:12:00,51.1,49.7,29.32,ESE,115,4.0,4.0,95,0.00,,,0.00,WUHU216DAVISVP2,2013-09-28 12:12:00,
2013-09-28 08:13:00,51.1,49.7,29.32,ESE,116,1.0,4.0,95,0.00,,,0.00,WUHU216DAVISVP2,2013-09-28 12:13:00,
2013-09-28 08:15:00,51.2,49.8,29.32,SE,141,1.0,5.0,95,0.00,,,0.00,WUHU216DAVISVP2,2013-09-28 12:15:00,
2013-09-28 08:17:00,51.2,49.8,29.32,ESE,117,2.0,6.0,95,0.00,,,0.00,WUHU216DAVISVP2,2013-09-28 12:17:00,
2013-09-28 08:18:00,51.3,49.9,29.32,SE,133,1.0,6.0,95,0.00,,,0.00,WUHU216DAVISVP2,2013-09-28 12:18:00,
2013-09-28 08:20:00,51.4,50.0,29.32,SE,137,1.0,6.0,95,0.00,,,0.00,WUHU216DAVISVP2,2013-09-28 12:20:00,
2013-09-28 08:22:00,51.4,50.0,29.33,SE,124,2.0,6.0,95,0.00,,,0.00,WUHU216DAVISVP2,2013-09-28 12:22:00,
2013-09-28 08:24:00,51.5,50.1,29.33,SE,126,3.0,6.0,95,0.00,,,0.00,WUHU216DAVISVP2,2013-09-28 12:24:00,
2013-09-28 08:25:00,51.6,50.2,29.32,SE,126,0.0,6.0,95,0.00,,,0.00,WUHU216DAVISVP2,2013-09-28 12:25:00,
2013-09-28 08:27:00,51.7,50.3,29.32,SE,126,1.0,6.0,95,0.00,,,0.00,WUHU216DAVISVP2,2013-09-28 12:27:00,
2013-09-28 08:29:00,51.7,50.3,29.33,SE,126,1.0,6.0,95,0.00,,,0.00,WUHU216DAVISVP2,2013-09-28 12:29:00,
2013-09-28 08:30:00,51.8,50.4,29.32,SE,126,4.0,6.0,95,0.00,,,0.00,WUHU216DAVISVP2,2013-09-28 12:30:00,
2013-09-28 08:31:00,51.9,50.5,29.32,SE,126,2.0,6.0,95,0.00,,,0.00,WUHU216DAVISVP2,2013-09-28 12:31:00,
2013-09-28 08:32:00,51.9,50.5,29.33,SE,126,2.0,6.0,95,0.00,,,0.00,WUHU216DAVISVP2,2013-09-28 12:32:00,
2013-09-28 08:34:00,52.1,50.7,29.33,SE,126,0.0,6.0,95,0.00,,,0.00,WUHU216DAVISVP2,2013-09-28 12:34:00,
2013-09-28 08:35:00,52.2,50.8,29.33,ESE,123,3.0,5.0,95,0.00,,,0.00,WUHU216DAVISVP2,2013-09-28 12:35:00,
2013-09-28 08:36:00,52.2,50.8,29.33,ESE,123,1.0,5.0,95,0.00,,,0.00,WUHU216DAVISVP2,2013-09-28 12:36:00,
2013-09-28 08:37:00,52.3,50.9,29.33,SE,124,1.0,5.0,95,0.00,,,0.00,WUHU216DAVISVP2,2013-09-28 12:37:00,
2013-09-28 08:39:00,52.4,51.0,29.32,SE,126,1.0,5.0,95,0.00,,,0.00,WUHU216DAVISVP2,2013-09-28 12:39:00,
2013-09-28 08:41:00,52.5,51.1,29.32,SE,134,2.0,5.0,95,0.00,,,0.00,WUHU216DAVISVP2,2013-09-28 12:41:00,
2013-09-28 08:42:00,52.6,51.2,29.32,ESE,122,2.0,5.0,95,0.00,,,0.00,WUHU216DAVISVP2,2013-09-28 12:42:00,
2013-09-28 08:43:00,52.6,51.2,29.32,ESE,121,4.0,5.0,95,0.00,,,0.00,WUHU216DAVISVP2,2013-09-28 12:43:00,
2013-09-28 08:44:00,52.7,51.3,29.32,ESE,113,2.0,5.0,95,0.00,,,0.00,WUHU216DAVISVP2,2013-09-28 12:44:00,
2013-09-28 08:46:00,52.8,51.1,29.32,SE,132,4.0,5.0,94,0.00,,,0.00,WUHU216DAVISVP2,2013-09-28 12:46:00,
2013-09-28 08:47:00,52.8,51.1,29.32,SE,127,0.0,5.0,94,0.00,,,0.00,WUHU216DAVISVP2,2013-09-28 12:47:00,
2013-09-28 08:48:00,52.9,51.2,29.32,ESE,123,0.0,5.0,94,0.00,,,0.00,WUHU216DAVISVP2,2013-09-28 12:48:00,
2013-09-28 08:49:00,53.0,51.3,29.33,SE,127,3.0,5.0,94,0.00,,,0.00,WUHU216DAVISVP2,2013-09-28 12:49:00,
2013-09-28 08:52:00,53.2,51.5,29.33,SSE,149,3.0,5.0,94,0.00,,,0.00,WUHU216DAVISVP2,2013-09-28 12:52:00,
2013-09-28 08:53:00,53.3,51.6,29.33,SSE,149,0.0,5.0,94,0.00,,,0.00,WUHU216DAVISVP2,2013-09-28 12:53:00,
2013-09-28 08:55:00,53.4,51.7,29.33,SSE,149,0.0,5.0,94,0.00,,,0.00,WUHU216DAVISVP2,2013-09-28 12:55:00,
2013-09-28 08:57:00,53.7,52.0,29.33,SSE,149,0.0,5.0,94,0.00,,,0.00,WUHU216DAVISVP2,2013-09-28 12:57:00,
2013-09-28 08:58:00,53.9,52.2,29.33,SE,126,1.0,5.0,94,0.00,,,0.00,WUHU216DAVISVP2,2013-09-28 12:58:00,
2013-09-28 09:00:00,54.0,52.3,29.33,SE,127,2.0,5.0,94,0.00,,,0.00,WUHU216DAVISVP2,2013-09-28 13:00:00,
2013-09-28 09:02:00,54.2,52.5,29.32,SE,127,1.0,5.0,94,0.00,,,0.00,WUHU216DAVISVP2,2013-09-28 13:02:00,
2013-09-28 09:03:00,54.3,52.3,29.32,SE,127,1.0,4.0,93,0.00,,,0.00,WUHU216DAVISVP2,2013-09-28 13:03:00,
2013-09-28 09:05:00,54.5,52.5,29.33,SE,127,0.0,4.0,93,0.00,,,0.00,WUHU216DAVISVP2,2013-09-28 13:05:00,
2013-09-28 09:07:00,54.8,52.8,29.33,SE,127,0.0,4.0,93,0.00,,,0.00,WUHU216DAVISVP2,2013-09-28 13:07:00,
2013-09-28 09:08:00,54.8,52.8,29.33,SE,127,0.0,4.0,93,0.00,,,0.00,WUHU216DAVISVP2,2013-09-28 13:08:00,
2013-09-28 09:10:00,55.2,53.2,29.33,SE,127,0.0,4.0,93,0.00,,,0.00,WUHU216DAVISVP2,2013-09-28 13:10:00,
2013-09-28 09:12:00,55.5,53.5,29.33,SE,127,0.0,4.0,93,0.00,,,0.00,WUHU216DAVISVP2,2013-09-28 13:12:00,
2013-09-28 09:13:00,55.6,53.6,29.33,SE,127,0.0,4.0,93,0.00,,,0.00,WUHU216DAVISVP2,2013-09-28 13:13:00,
2013-09-28 09:16:00,56.0,53.7,29.33,SE,127,0.0,4.0,92,0.00,,,0.00,WUHU216DAVISVP2,2013-09-28 13:16:00,
2013-09-28 09:17:00,56.2,53.9,29.33,SE,127,0.0,4.0,92,0.00,,,0.00,WUHU216DAVISVP2,2013-09-28 13:17:00,
2013-09-28 09:18:00,56.4,54.1,29.33,SE,127,0.0,4.0,92,0.00,,,0.00,WUHU216DAVISVP2,2013-09-28 13:18:00,
2013-09-28 09:19:00,56.5,53.9,29.33,SE,127,0.0,4.0,91,0.00,,,0.00,WUHU216DAVISVP2,2013-09-28 13:19:00,
2013-09-28 09:21:00,56.9,54.3,29.33,SE,127,0.0,2.0,91,0.00,,,0.00,WUHU216DAVISVP2,2013-09-28 13:21:00,
2013-09-28 09:22:00,57.1,54.2,29.33,SE,127,0.0,2.0,90,0.00,,,0.00,WUHU216DAVISVP2,2013-09-28 13:22:00,
2013-09-28 09:23:00,57.2,54.3,29.33,SE,127,0.0,2.0,90,0.00,,,0.00,WUHU216DAVISVP2,2013-09-28 13:23:00,
2013-09-28 09:24:00,57.3,54.4,29.33,SE,127,0.0,2.0,90,0.00,,,0.00,WUHU216DAVISVP2,2013-09-28 13:24:00,
2013-09-28 09:26:00,57.8,54.6,29.32,SE,127,0.0,2.0,89,0.00,,,0.00,WUHU216DAVISVP2,2013-09-28 13:26:00,
2013-09-28 09:27:00,58.0,54.8,29.32,SE,127,0.0,2.0,89,0.00,,,0.00,WUHU216DAVISVP2,2013-09-28 13:27:00,
2013-09-28 09:28:00,58.0,54.8,29.32,SE,127,0.0,2.0,89,0.00,,,0.00,WUHU216DAVISVP2,2013-09-28 13:28:00,
2013-09-28 09:29:00,58.1,54.5,29.33,SE,127,0.0,2.0,88,0.00,,,0.00,WUHU216DAVISVP2,2013-09-28 13:29:00,
2013-09-28 09:31:00,58.5,54.6,29.32,SE,127,0.0,2.0,87,0.00,,,0.00,WUHU216DAVISVP2,2013-09-28 13:31:00,
2013-09-28 09:33:00,58.6,54.7,29.32,SE,127,0.0,2.0,87,0.00,,,0.00,WUHU216DAVISVP2,2013-09-28 13:33:00,
2013-09-28 09:34:00,58.7,54.5,29.32,SE,127,1.0,2.0,86,0.00,,,0.00,WUHU216DAVISVP2,2013-09-28 13:34:00,
2013-09-28 09:37:00,59.0,54.8,29.33,SE,127,0.0,2.0,86,0.00,,,0.00,WUHU216DAVISVP2,2013-09-28 13:37:00,
2013-09-28 09:38:00,59.1,54.6,29.33,SE,127,0.0,2.0,85,0.00,,,0.00,WUHU216DAVISVP2,2013-09-28 13:38:00,
2013-09-28 09:39:00,59.2,54.7,29.33,SE,127,0.0,2.0,85,0.00,,,0.00,WUHU216DAVISVP2,2013-09-28 13:39:00,
2013-09-28 09:42:00,59.6,54.8,29.33,SSE,155,0.0,4.0,84,0.00,,,0.00,WUHU216DAVISVP2,2013-09-28 13:42:00,
2013-09-28 09:43:00,59.9,55.1,29.33,SSE,151,2.0,4.0,84,0.00,,,0.00,WUHU216DAVISVP2,2013-09-28 13:43:00,
2013-09-28 09:44:00,59.9,55.1,29.33,SSE,151,2.0,4.0,84,0.00,,,0.00,WUHU216DAVISVP2,2013-09-28 13:44:00,
2013-09-28 09:47:00,60.4,55.6,29.33,SSE,151,0.0,4.0,84,0.00,,,0.00,WUHU216DAVISVP2,2013-09-28 13:47:00,
2013-09-28 09:49:00,60.7,55.5,29.33,SSE,152,2.0,5.0,83,0.00,,,0.00,WUHU216DAVISVP2,2013-09-28 13:49:00,
2013-09-28 09:52:00,61.3,55.8,29.33,SSE,153,1.0,5.0,82,0.00,,,0.00,WUHU216DAVISVP2,2013-09-28 13:52:00,
2013-09-28 09:54:00,61.5,55.7,29.33,ESE,109,0.0,5.0,81,0.00,,,0.00,WUHU216DAVISVP2,2013-09-28 13:54:00,
2013-09-28 09:55:00,61.7,55.9,29.33,SSE,160,5.0,5.0,81,0.00,,,0.00,WUHU216DAVISVP2,2013-09-28 13:55:00,
2013-09-28 09:57:00,61.9,56.1,29.33,SSE,160,0.0,5.0,81,0.00,,,0.00,WUHU216DAVISVP2,2013-09-28 13:57:00,
2013-09-28 09:59:00,62.2,56.0,29.33,SSE,160,2.0,5.0,80,0.00,,,0.00,WUHU216DAVISVP2,2013-09-28 13:59:00,
2013-09-28 10:01:00,62.4,56.2,29.33,South,175,3.0,5.0,80,0.00,,,0.00,WUHU216DAVISVP2,2013-09-28 14:01:00,
2013-09-28 10:02:00,62.6,56.1,29.33,South,174,3.0,6.0,79,0.00,,,0.00,WUHU216DAVISVP2,2013-09-28 14:02:00,
2013-09-28 10:04:00,62.8,56.3,29.33,South,174,0.0,6.0,79,0.00,,,0.00,WUHU216DAVISVP2,2013-09-28 14:04:00,
2013-09-28 10:05:00,62.9,56.4,29.33,South,174,0.0,6.0,79,0.00,,,0.00,WUHU216DAVISVP2,2013-09-28 14:05:00,
2013-09-28 10:06:00,63.0,56.5,29.34,South,174,0.0,6.0,79,0.00,,,0.00,WUHU216DAVISVP2,2013-09-28 14:06:00,
2013-09-28 10:08:00,63.3,56.8,29.34,South,174,0.0,6.0,79,0.00,,,0.00,WUHU216DAVISVP2,2013-09-28 14:08:00,
2013-09-28 10:09:00,63.4,56.8,29.34,South,174,0.0,6.0,79,0.00,,,0.00,WUHU216DAVISVP2,2013-09-28 14:09:00,
2013-09-28 10:10:00,63.5,56.6,29.34,South,174,3.0,6.0,78,0.00,,,0.00,WUHU216DAVISVP2,2013-09-28 14:10:00,
2013-09-28 10:11:00,63.7,56.4,29.34,SW,214,0.0,6.0,77,0.00,,,0.00,WUHU216DAVISVP2,2013-09-28 14:11:00,
2013-09-28 10:13:00,63.9,56.6,29.33,SW,214,1.0,6.0,77,0.00,,,0.00,WUHU216DAVISVP2,2013-09-28 14:13:00,
2013-09-28 10:14:00,64.1,56.8,29.33,SW,214,0.0,6.0,77,0.00,,,0.00,WUHU216DAVISVP2,2013-09-28 14:14:00,
2013-09-28 10:16:00,64.3,56.7,29.33,SSW,193,1.0,6.0,76,0.00,,,0.00,WUHU216DAVISVP2,2013-09-28 14:16:00,
2013-09-28 10:18:00,64.6,57.0,29.33,South,189,2.0,6.0,76,0.00,,,0.00,WUHU216DAVISVP2,2013-09-28 14:18:00,
2013-09-28 10:19:00,64.7,57.1,29.33,SSW,211,1.0,6.0,76,0.00,,,0.00,WUHU216DAVISVP2,2013-09-28 14:19:00,
2013-09-28 10:21:00,65.0,57.0,29.33,South,179,0.0,5.0,75,0.00,,,0.00,WUHU216DAVISVP2,2013-09-28 14:21:00,
2013-09-28 10:23:00,65.3,56.9,29.33,WSW,245,2.0,6.0,74,0.00,,,0.00,WUHU216DAVISVP2,2013-09-28 14:23:00,
2013-09-28 10:24:00,65.4,56.7,29.34,WSW,245,0.0,6.0,73,0.00,,,0.00,WUHU216DAVISVP2,2013-09-28 14:24:00,
2013-09-28 10:26:00,65.6,56.5,29.34,SW,224,0.0,6.0,72,0.00,,,0.00,WUHU216DAVISVP2,2013-09-28 14:26:00,
2013-09-28 10:28:00,65.7,56.6,29.34,SW,224,1.0,6.0,72,0.00,,,0.00,WUHU216DAVISVP2,2013-09-28 14:28:00,
2013-09-28 10:29:00,65.8,56.7,29.33,SW,222,0.0,6.0,72,0.00,,,0.00,WUHU216DAVISVP2,2013-09-28 14:29:00,
2013-09-28 10:31:00,65.9,56.4,29.33,SW,220,0.0,6.0,71,0.00,,,0.00,WUHU216DAVISVP2,2013-09-28 14:31:00,
2013-09-28 10:32:00,66.0,56.5,29.33,SW,220,0.0,6.0,71,0.00,,,0.00,WUHU216DAVISVP2,2013-09-28 14:32:00,
2013-09-28 10:33:00,66.1,56.6,29.33,SW,226,2.0,7.0,71,0.00,,,0.00,WUHU216DAVISVP2,2013-09-28 14:33:00,
2013-09-28 10:34:00,66.2,56.7,29.33,South,179,2.0,7.0,71,0.00,,,0.00,WUHU216DAVISVP2,2013-09-28 14:34:00,
2013-09-28 10:37:00,66.4,56.5,29.33,SW,227,4.0,7.0,70,0.00,,,0.00,WUHU216DAVISVP2,2013-09-28 14:37:00,
2013-09-28 10:38:00,66.6,56.7,29.34,SSW,208,6.0,7.0,70,0.00,,,0.00,WUHU216DAVISVP2,2013-09-28 14:38:00,
2013-09-28 10:39:00,66.6,56.3,29.34,SSW,198,2.0,7.0,69,0.00,,,0.00,WUHU216DAVISVP2,2013-09-28 14:39:00,
2013-09-28 10:42:00,66.8,56.1,29.34,South,189,0.0,7.0,68,0.00,,,0.00,WUHU216DAVISVP2,2013-09-28 14:42:00,
2013-09-28 10:43:00,66.9,56.2,29.34,South,180,5.0,7.0,68,0.00,,,0.00,WUHU216DAVISVP2,2013-09-28 14:43:00,
2013-09-28 10:44:00,67.0,56.3,29.34,SW,214,0.0,7.0,68,0.00,,,0.00,WUHU216DAVISVP2,2013-09-28 14:44:00,
2013-09-28 10:47:00,67.4,56.6,29.33,South,189,0.0,7.0,68,0.00,,,0.00,WUHU216DAVISVP2,2013-09-28 14:47:00,
2013-09-28 10:48:00,67.4,56.6,29.33,SSW,208,0.0,7.0,68,0.00,,,0.00,WUHU216DAVISVP2,2013-09-28 14:48:00,
2013-09-28 10:49:00,67.5,56.3,29.33,SSW,194,0.0,7.0,67,0.00,,,0.00,WUHU216DAVISVP2,2013-09-28 14:49:00,
2013-09-28 10:53:00,67.7,56.1,29.33,South,172,6.0,7.0,66,0.00,,,0.00,WUHU216DAVISVP2,2013-09-28 14:53:00,
2013-09-28 10:54:00,67.8,56.2,29.33,SSW,213,1.0,7.0,66,0.00,,,0.00,WUHU216DAVISVP2,2013-09-28 14:54:00,
2013-09-28 10:58:00,68.1,55.6,29.33,SSW,209,0.0,7.0,64,0.00,,,0.00,WUHU216DAVISVP2,2013-09-28 14:58:00,
2013-09-28 10:59:00,68.2,55.7,29.33,WSW,241,1.0,7.0,64,0.00,,,0.00,WUHU216DAVISVP2,2013-09-28 14:59:00,
2013-09-28 11:00:00,68.3,56.3,29.33,WSW,239,5.0,7.0,65,0.00,,,0.00,WUHU216DAVISVP2,2013-09-28 15:00:00,
2013-09-28 11:03:00,68.5,56.0,29.33,SSW,208,4.0,7.0,64,0.00,,,0.00,WUHU216DAVISVP2,2013-09-28 15:03:00,
2013-09-28 11:04:00,68.6,56.1,29.33,SSW,203,0.0,7.0,64,0.00,,,0.00,WUHU216DAVISVP2,2013-09-28 15:04:00,
2013-09-28 11:05:00,68.6,56.1,29.33,SSW,206,5.0,7.0,64,0.00,,,0.00,WUHU216DAVISVP2,2013-09-28 15:05:00,
2013-09-28 11:08:00,68.9,56.0,29.33,South,181,2.0,8.0,63,0.00,,,0.00,WUHU216DAVISVP2,2013-09-28 15:08:00,
2013-09-28 11:10:00,69.1,56.2,29.33,WSW,243,1.0,8.0,63,0.00,,,0.00,WUHU216DAVISVP2,2013-09-28 15:10:00,
2013-09-28 11:13:00,69.4,56.4,29.33,SSW,197,0.0,8.0,63,0.00,,,0.00,WUHU216DAVISVP2,2013-09-28 15:13:00,
2013-09-28 11:14:00,69.5,56.5,29.33,South,189,5.0,8.0,63,0.00,,,0.00,WUHU216DAVISVP2,2013-09-28 15:14:00,
2013-09-28 11:15:00,69.6,56.6,29.33,SW,216,1.0,8.0,63,0.00,,,0.00,WUHU216DAVISVP2,2013-09-28 15:15:00,
2013-09-28 11:19:00,70.0,56.6,29.33,SSW,201,2.0,8.0,62,0.00,,,0.00,WUHU216DAVISVP2,2013-09-28 15:19:00,
2013-09-28 11:20:00,70.1,56.7,29.33,SSW,201,0.0,8.0,62,0.00,,,0.00,WUHU216DAVISVP2,2013-09-28 15:20:00,
2013-09-28 11:24:00,70.4,56.9,29.33,SSW,198,5.0,8.0,62,0.00,,,0.00,WUHU216DAVISVP2,2013-09-28 15:24:00,
2013-09-28 11:25:00,70.5,57.0,29.33,SSW,196,0.0,8.0,62,0.00,,,0.00,WUHU216DAVISVP2,2013-09-28 15:25:00,
2013-09-28 11:26:00,70.6,56.7,29.33,SSW,197,5.0,8.0,61,0.00,,,0.00,WUHU216DAVISVP2,2013-09-28 15:26:00,
2013-09-28 11:29:00,71.0,57.1,29.33,South,175,7.0,7.0,61,0.00,,,0.00,WUHU216DAVISVP2,2013-09-28 15:29:00,
2013-09-28 11:30:00,71.0,57.1,29.33,South,176,0.0,7.0,61,0.00,,,0.00,WUHU216DAVISVP2,2013-09-28 15:30:00,
2013-09-28 11:31:00,71.2,57.3,29.33,South,183,1.0,7.0,61,0.00,,,0.00,WUHU216DAVISVP2,2013-09-28 15:31:00,
2013-09-28 11:34:00,71.6,57.2,29.32,SSW,209,4.0,7.0,60,0.00,,,0.00,WUHU216DAVISVP2,2013-09-28 15:34:00,
2013-09-28 11:35:00,71.7,56.8,29.32,SW,226,4.0,11.0,59,0.00,,,0.00,WUHU216DAVISVP2,2013-09-28 15:35:00,
2013-09-28 11:36:00,71.7,56.8,29.32,SW,214,0.0,11.0,59,0.00,,,0.00,WUHU216DAVISVP2,2013-09-28 15:36:00,
2013-09-28 11:38:00,71.8,57.4,29.32,SW,235,6.0,11.0,60,0.00,,,0.00,WUHU216DAVISVP2,2013-09-28 15:38:00,
2013-09-28 11:40:00,72.1,57.6,29.32,SSE,168,0.0,11.0,60,0.00,,,0.00,WUHU216DAVISVP2,2013-09-28 15:40:00,
2013-09-28 11:42:00,72.4,57.9,29.32,WSW,239,2.0,11.0,60,0.00,,,0.00,WUHU216DAVISVP2,2013-09-28 15:42:00,
2013-09-28 11:43:00,72.5,58.0,29.32,SW,230,2.0,11.0,60,0.00,,,0.00,WUHU216DAVISVP2,2013-09-28 15:43:00,
2013-09-28 11:45:00,72.7,57.7,29.32,SW,232,8.0,12.0,59,0.00,,,0.00,WUHU216DAVISVP2,2013-09-28 15:45:00,
2013-09-28 11:46:00,72.8,57.8,29.32,SSW,201,2.0,12.0,59,0.00,,,0.00,WUHU216DAVISVP2,2013-09-28 15:46:00,
2013-09-28 11:47:00,72.8,57.3,29.32,WSW,247,5.0,12.0,58,0.00,,,0.00,WUHU216DAVISVP2,2013-09-28 15:47:00,
2013-09-28 11:48:00,72.8,57.3,29.32,SSW,209,0.0,12.0,58,0.00,,,0.00,WUHU216DAVISVP2,2013-09-28 15:48:00,
2013-09-28 11:50:00,73.0,58.0,29.31,South,180,6.0,12.0,59,0.00,,,0.00,WUHU216DAVISVP2,2013-09-28 15:50:00,
2013-09-28 11:51:00,73.1,57.6,29.31,SSW,204,1.0,12.0,58,0.00,,,0.00,WUHU216DAVISVP2,2013-09-28 15:51:00,
2013-09-28 11:52:00,73.1,57.1,29.31,WSW,248,9.0,12.0,57,0.00,,,0.00,WUHU216DAVISVP2,2013-09-28 15:52:00,
2013-09-28 11:53:00,73.1,57.1,29.31,South,179,11.0,12.0,57,0.00,,,0.00,WUHU216DAVISVP2,2013-09-28 15:53:00,
2013-09-28 11:55:00,73.3,56.8,29.31,SSW,210,7.0,12.0,56,0.00,,,0.00,WUHU216DAVISVP2,2013-09-28 15:55:00,
2013-09-28 11:56:00,73.3,57.3,29.31,SW,219,5.0,12.0,57,0.00,,,0.00,WUHU216DAVISVP2,2013-09-28 15:56:00,
2013-09-28 11:57:00,73.4,57.4,29.32,SSE,147,6.0,12.0,57,0.00,,,0.00,WUHU216DAVISVP2,2013-09-28 15:57:00,
2013-09-28 11:58:00,73.4,57.4,29.32,SE,136,3.0,12.0,57,0.00,,,0.00,WUHU216DAVISVP2,2013-09-28 15:58:00,
2013-09-28 12:00:00,73.6,57.1,29.32,SW,228,7.0,12.0,56,0.00,,,0.00,WUHU216DAVISVP2,2013-09-28 16:00:00,
2013-09-28 12:01:00,73.6,57.6,29.32,SW,222,2.0,12.0,57,0.00,,,0.00,WUHU216DAVISVP2,2013-09-28 16:01:00,
2013-09-28 12:03:00,73.8,57.3,29.31,WSW,245,11.0,12.0,56,0.00,,,0.00,WUHU216DAVISVP2,2013-09-28 16:03:00,
2013-09-28 12:06:00,73.9,56.9,29.31,SSW,200,1.0,12.0,55,0.00,,,0.00,WUHU216DAVISVP2,2013-09-28 16:06:00,
2013-09-28 12:08:00,74.0,57.0,29.31,SSW,203,2.0,12.0,55,0.00,,,0.00,WUHU216DAVISVP2,2013-09-28 16:08:00,
2013-09-28 12:09:00,74.0,57.0,29.31,SW,224,8.0,12.0,55,0.00,,,0.00,WUHU216DAVISVP2,2013-09-28 16:09:00,
2013-09-28 12:11:00,74.1,57.1,29.31,WSW,238,8.0,12.0,55,0.00,,,0.00,WUHU216DAVISVP2,2013-09-28 16:11:00,
2013-09-28 12:13:00,74.2,57.1,29.31,SW,220,7.0,12.0,55,0.00,,,0.00,WUHU216DAVISVP2,2013-09-28 16:13:00,
2013-09-28 12:14:00,74.3,57.2,29.31,South,181,2.0,12.0,55,0.00,,,0.00,WUHU216DAVISVP2,2013-09-28 16:14:00,
2013-09-28 12:16:00,74.4,56.8,29.30,SW,222,0.0,16.0,54,0.00,,,0.00,WUHU216DAVISVP2,2013-09-28 16:16:00,
2013-09-28 12:17:00,74.4,56.8,29.30,SSW,197,1.0,16.0,54,0.00,,,0.00,WUHU216DAVISVP2,2013-09-28 16:17:00,
2013-09-28 12:18:00,74.4,56.8,29.31,SSE,156,0.0,16.0,54,0.00,,,0.00,WUHU216DAVISVP2,2013-09-28 16:18:00,
2013-09-28 12:19:00,74.5,56.9,29.31,SSW,202,2.0,16.0,54,0.00,,,0.00,WUHU216DAVISVP2,2013-09-28 16:19:00,
2013-09-28 12:21:00,74.6,57.0,29.30,WSW,253,4.0,16.0,54,0.00,,,0.00,WUHU216DAVISVP2,2013-09-28 16:21:00,
2013-09-28 12:22:00,74.7,57.1,29.30,SSW,210,2.0,16.0,54,0.00,,,0.00,WUHU216DAVISVP2,2013-09-28 16:22:00,
2013-09-28 12:24:00,74.8,58.2,29.30,SSW,201,1.0,16.0,56,0.00,,,0.00,WUHU216DAVISVP2,2013-09-28 16:24:00,
2013-09-28 12:27:00,74.8,56.7,29.30,SSW,207,1.0,16.0,53,0.00,,,0.00,WUHU216DAVISVP2,2013-09-28 16:27:00,
2013-09-28 12:29:00,74.9,56.7,29.30,WSW,242,14.0,16.0,53,0.00,,,0.00,WUHU216DAVISVP2,2013-09-28 16:29:00,
2013-09-28 12:30:00,74.8,56.7,29.30,WSW,241,9.0,18.0,53,0.00,,,0.00,WUHU216DAVISVP2,2013-09-28 16:30:00,
2013-09-28 12:32:00,74.9,56.7,29.30,South,183,13.0,18.0,53,0.00,,,0.00,WUHU216DAVISVP2,2013-09-28 16:32:00,
2013-09-28 12:34:00,74.9,56.7,29.30,SW,230,11.0,21.0,53,0.00,,,0.00,WUHU216DAVISVP2,2013-09-28 16:34:00,
2013-09-28 12:35:00,74.9,56.7,29.30,WSW,246,12.0,21.0,53,0.00,,,0.00,WUHU216DAVISVP2,2013-09-28 16:35:00,
2013-09-28 12:37:00,75.1,56.4,29.30,SW,228,1.0,21.0,52,0.00,,,0.00,WUHU216DAVISVP2,2013-09-28 16:37:00,
2013-09-28 12:39:00,75.3,56.6,29.30,WSW,245,14.0,21.0,52,0.00,,,0.00,WUHU216DAVISVP2,2013-09-28 16:39:00,
2013-09-28 12:40:00,75.3,56.0,29.30,WSW,245,7.0,21.0,51,0.00,,,0.00,WUHU216DAVISVP2,2013-09-28 16:40:00,
2013-09-28 12:42:00,75.4,56.7,29.30,WSW,258,7.0,21.0,52,0.00,,,0.00,WUHU216DAVISVP2,2013-09-28 16:42:00,
2013-09-28 12:44:00,75.6,55.2,29.29,WSW,247,11.0,21.0,49,0.00,,,0.00,WUHU216DAVISVP2,2013-09-28 16:44:00,
2013-09-28 12:46:00,75.6,55.2,29.29,SW,228,7.0,21.0,49,0.00,,,0.00,WUHU216DAVISVP2,2013-09-28 16:46:00,
2013-09-28 12:47:00,75.6,56.3,29.29,WSW,250,9.0,21.0,51,0.00,,,0.00,WUHU216DAVISVP2,2013-09-28 16:47:00,
2013-09-28 12:50:00,75.8,55.9,29.29,WSW,239,2.0,21.0,50,0.00,,,0.00,WUHU216DAVISVP2,2013-09-28 16:50:00,
2013-09-28 12:51:00,75.8,55.9,29.29,SW,235,2.0,21.0,50,0.00,,,0.00,WUHU216DAVISVP2,2013-09-28 16:51:00,
2013-09-28 12:52:00,75.8,56.5,29.29,South,179,11.0,21.0,51,0.00,,,0.00,WUHU216DAVISVP2,2013-09-28 16:52:00,
2013-09-28 12:53:00,75.8,56.5,29.29,South,186,12.0,15.0,51,0.00,,,0.00,WUHU216DAVISVP2,2013-09-28 16:53:00,
2013-09-28 12:55:00,75.8,55.9,29.29,SSW,195,5.0,16.0,50,0.00,,,0.00,WUHU216DAVISVP2,2013-09-28 16:55:00,
2013-09-28 12:57:00,75.9,56.6,29.29,SW,235,9.0,16.0,51,0.00,,,0.00,WUHU216DAVISVP2,2013-09-28 16:57:00,
2013-09-28 12:58:00,75.9,56.0,29.29,WSW,239,8.0,18.0,50,0.00,,,0.00,WUHU216DAVISVP2,2013-09-28 16:58:00,
2013-09-28 13:00:00,75.9,56.0,29.29,SW,235,3.0,18.0,50,0.00,,,0.00,WUHU216DAVISVP2,2013-09-28 17:00:00,
2013-09-28 13:02:00,75.9,56.0,29.29,South,182,7.0,18.0,50,0.00,,,0.00,WUHU216DAVISVP2,2013-09-28 17:02:00,
2013-09-28 13:03:00,75.9,56.0,29.29,West,269,10.0,18.0,50,0.00,,,0.00,WUHU216DAVISVP2,2013-09-28 17:03:00,
2013-09-28 13:05:00,76.0,56.7,29.29,WSW,243,5.0,18.0,51,0.00,,,0.00,WUHU216DAVISVP2,2013-09-28 17:05:00,
2013-09-28 13:07:00,76.1,57.9,29.29,SW,222,12.0,18.0,53,0.00,,,0.00,WUHU216DAVISVP2,2013-09-28 17:07:00,
2013-09-28 13:08:00,76.1,56.2,29.29,SW,222,6.0,18.0,50,0.00,,,0.00,WUHU216DAVISVP2,2013-09-28 17:08:00,
2013-09-28 13:10:00,76.2,56.3,29.29,WSW,251,7.0,18.0,50,0.00,,,0.00,WUHU216DAVISVP2,2013-09-28 17:10:00,
2013-09-28 13:13:00,76.2,56.3,29.29,South,174,7.0,18.0,50,0.00,,,0.00,WUHU216DAVISVP2,2013-09-28 17:13:00,
2013-09-28 13:16:00,76.2,56.3,29.28,SSW,209,2.0,18.0,50,0.00,,,0.00,WUHU216DAVISVP2,2013-09-28 17:16:00,
2013-09-28 13:18:00,76.2,56.9,29.28,South,184,4.0,16.0,51,0.00,,,0.00,WUHU216DAVISVP2,2013-09-28 17:18:00,
2013-09-28 13:19:00,76.3,56.9,29.28,SW,231,5.0,16.0,51,0.00,,,0.00,WUHU216DAVISVP2,2013-09-28 17:19:00,
2013-09-28 13:21:00,76.4,57.0,29.28,SSW,206,6.0,15.0,51,0.00,,,0.00,WUHU216DAVISVP2,2013-09-28 17:21:00,
2013-09-28 13:23:00,76.4,54.7,29.28,South,172,6.0,15.0,47,0.00,,,0.00,WUHU216DAVISVP2,2013-09-28 17:23:00,
2013-09-28 13:26:00,76.3,54.6,29.28,South,172,7.0,15.0,47,0.00,,,0.00,WUHU216DAVISVP2,2013-09-28 17:26:00,
2013-09-28 13:28:00,76.4,54.7,29.28,South,183,9.0,15.0,47,0.00,,,0.00,WUHU216DAVISVP2,2013-09-28 17:28:00,
2013-09-28 13:32:00,76.6,56.1,29.28,WSW,246,8.0,14.0,49,0.00,,,0.00,WUHU216DAVISVP2,2013-09-28 17:32:00,
2013-09-28 13:33:00,76.7,56.2,29.27,SW,222,2.0,14.0,49,0.00,,,0.00,WUHU216DAVISVP2,2013-09-28 17:33:00,
2013-09-28 13:34:00,76.8,55.7,29.27,SSW,197,0.0,14.0,48,0.00,,,0.00,WUHU216DAVISVP2,2013-09-28 17:34:00,
2013-09-28 13:37:00,76.9,56.4,29.27,SSW,201,4.0,14.0,49,0.00,,,0.00,WUHU216DAVISVP2,2013-09-28 17:37:00,
2013-09-28 13:38:00,76.9,55.8,29.27,South,184,7.0,14.0,48,0.00,,,0.00,WUHU216DAVISVP2,2013-09-28 17:38:00,
2013-09-28 13:39:00,76.9,55.8,29.27,South,181,11.0,14.0,48,0.00,,,0.00,WUHU216DAVISVP2,2013-09-28 17:39:00,
2013-09-28 13:42:00,77.0,55.3,29.27,SSW,210,2.0,16.0,47,0.00,,,0.00,WUHU216DAVISVP2,2013-09-28 17:42:00,
2013-09-28 13:43:00,77.0,54.7,29.27,SSW,197,0.0,16.0,46,0.00,,,0.00,WUHU216DAVISVP2,2013-09-28 17:43:00,
2013-09-28 13:44:00,77.0,54.7,29.27,SSW,212,5.0,16.0,46,0.00,,,0.00,WUHU216DAVISVP2,2013-09-28 17:44:00,
2013-09-28 13:47:00,77.1,55.4,29.26,WSW,248,7.0,16.0,47,0.00,,,0.00,WUHU216DAVISVP2,2013-09-28 17:47:00,
2013-09-28 13:48:00,77.2,55.4,29.26,SW,214,4.0,16.0,47,0.00,,,0.00,WUHU216DAVISVP2,2013-09-28 17:48:00,
2013-09-28 13:49:00,77.2,55.4,29.26,WSW,247,9.0,16.0,47,0.00,,,0.00,WUHU216DAVISVP2,2013-09-28 17:49:00,
2013-09-28 13:53:00,77.3,56.1,29.27,South,177,6.0,16.0,48,0.00,,,0.00,WUHU216DAVISVP2,2013-09-28 17:53:00,
2013-09-28 13:55:00,77.3,55.5,29.26,SSW,203,1.0,16.0,47,0.00,,,0.00,WUHU216DAVISVP2,2013-09-28 17:55:00,
2013-09-28 13:58:00,77.3,55.5,29.26,South,187,5.0,16.0,47,0.00,,,0.00,WUHU216DAVISVP2,2013-09-28 17:58:00,
2013-09-28 14:00:00,77.4,56.2,29.25,SW,221,7.0,12.0,48,0.00,,,0.00,WUHU216DAVISVP2,2013-09-28 18:00:00,
2013-09-28 14:03:00,77.6,55.2,29.25,South,177,11.0,12.0,46,0.00,,,0.00,WUHU216DAVISVP2,2013-09-28 18:03:00,
2013-09-28 14:04:00,77.6,55.2,29.25,SW,224,1.0,12.0,46,0.00,,,0.00,WUHU216DAVISVP2,2013-09-28 18:04:00,
2013-09-28 14:06:00,77.6,55.2,29.25,SSW,200,1.0,12.0,46,0.00,,,0.00,WUHU216DAVISVP2,2013-09-28 18:06:00,
2013-09-28 14:08:00,77.7,55.9,29.25,SSW,200,7.0,15.0,47,0.00,,,0.00,WUHU216DAVISVP2,2013-09-28 18:08:00,
2013-09-28 14:09:00,77.7,55.9,29.25,SSW,203,7.0,15.0,47,0.00,,,0.00,WUHU216DAVISVP2,2013-09-28 18:09:00,
2013-09-28 14:11:00,77.7,55.3,29.25,SW,221,5.0,15.0,46,0.00,,,0.00,WUHU216DAVISVP2,2013-09-28 18:11:00,
2013-09-28 14:13:00,77.7,55.9,29.25,South,189,0.0,15.0,47,0.00,,,0.00,WUHU216DAVISVP2,2013-09-28 18:13:00,
2013-09-28 14:14:00,77.7,55.9,29.25,South,189,1.0,15.0,47,0.00,,,0.00,WUHU216DAVISVP2,2013-09-28 18:14:00,
2013-09-28 14:17:00,77.9,55.5,29.25,South,187,7.0,15.0,46,0.00,,,0.00,WUHU216DAVISVP2,2013-09-28 18:17:00,
2013-09-28 14:19:00,78.0,56.2,29.25,WSW,244,7.0,15.0,47,0.00,,,0.00,WUHU216DAVISVP2,2013-09-28 18:19:00,
2013-09-28 14:22:00,78.1,55.0,29.25,WSW,251,13.0,18.0,45,0.00,,,0.00,WUHU216DAVISVP2,2013-09-28 18:22:00,
2013-09-28 14:24:00,78.1,54.4,29.24,WSW,258,13.0,18.0,44,0.00,,,0.00,WUHU216DAVISVP2,2013-09-28 18:24:00,
2013-09-28 14:27:00,78.0,54.3,29.24,WSW,254,4.0,18.0,44,0.00,,,0.00,WUHU216DAVISVP2,2013-09-28 18:27:00,
2013-09-28 14:29:00,78.3,55.8,29.24,South,187,8.0,18.0,46,0.00,,,0.00,WUHU216DAVISVP2,2013-09-28 18:29:00,
2013-09-28 14:30:00,78.3,55.2,29.24,South,187,9.0,18.0,45,0.00,,,0.00,WUHU216DAVISVP2,2013-09-28 18:30:00,
2013-09-28 14:32:00,78.4,54.7,29.24,WSW,251,6.0,18.0,44,0.00,,,0.00,WUHU216DAVISVP2,2013-09-28 18:32:00,
2013-09-28 14:34:00,78.4,54.7,29.24,WSW,247,8.0,18.0,44,0.00,,,0.00,WUHU216DAVISVP2,2013-09-28 18:34:00,
2013-09-28 14:35:00,78.4,54.7,29.24,SSW,208,2.0,18.0,44,0.00,,,0.00,WUHU216DAVISVP2,2013-09-28 18:35:00,
2013-09-28 14:37:00,78.4,54.7,29.24,WSW,243,9.0,18.0,44,0.00,,,0.00,WUHU216DAVISVP2,2013-09-28 18:37:00,
2013-09-28 14:39:00,78.3,54.6,29.24,SW,220,3.0,18.0,44,0.00,,,0.00,WUHU216DAVISVP2,2013-09-28 18:39:00,
2013-09-28 14:40:00,78.3,54.6,29.24,SW,227,4.0,18.0,44,0.00,,,0.00,WUHU216DAVISVP2,2013-09-28 18:40:00,
2013-09-28 14:41:00,78.3,55.2,29.24,WSW,241,8.0,18.0,45,0.00,,,0.00,WUHU216DAVISVP2,2013-09-28 18:41:00,
2013-09-28 14:43:00,78.4,55.9,29.24,South,186,5.0,18.0,46,0.00,,,0.00,WUHU216DAVISVP2,2013-09-28 18:43:00,
2013-09-28 14:44:00,78.5,54.8,29.24,SW,223,7.0,18.0,44,0.00,,,0.00,WUHU216DAVISVP2,2013-09-28 18:44:00,
2013-09-28 14:45:00,78.5,54.8,29.24,West,259,11.0,18.0,44,0.00,,,0.00,WUHU216DAVISVP2,2013-09-28 18:45:00,
2013-09-28 14:46:00,78.5,54.1,29.24,WSW,258,9.0,18.0,43,0.00,,,0.00,WUHU216DAVISVP2,2013-09-28 18:46:00,
2013-09-28 14:48:00,78.5,54.8,29.24,WSW,238,9.0,18.0,44,0.00,,,0.00,WUHU216DAVISVP2,2013-09-28 18:48:00,
2013-09-28 14:50:00,78.6,54.9,29.24,South,181,8.0,18.0,44,0.00,,,0.00,WUHU216DAVISVP2,2013-09-28 18:50:00,
2013-09-28 14:52:00,78.6,54.9,29.24,SW,224,1.0,18.0,44,0.00,,,0.00,WUHU216DAVISVP2,2013-09-28 18:52:00,
2013-09-28 14:53:00,78.6,54.9,29.23,South,183,9.0,16.0,44,0.00,,,0.00,WUHU216DAVISVP2,2013-09-28 18:53:00,
2013-09-28 14:55:00,78.5,56.0,29.23,WSW,237,8.0,16.0,46,0.00,,,0.00,WUHU216DAVISVP2,2013-09-28 18:55:00,
2013-09-28 14:57:00,78.5,55.4,29.23,South,183,12.0,16.0,45,0.00,,,0.00,WUHU216DAVISVP2,2013-09-28 18:57:00,
2013-09-28 14:58:00,78.5,55.4,29.24,South,170,9.0,16.0,45,0.00,,,0.00,WUHU216DAVISVP2,2013-09-28 18:58:00,
2013-09-28 15:00:00,78.5,56.0,29.24,WSW,242,2.0,16.0,46,0.00,,,0.00,WUHU216DAVISVP2,2013-09-28 19:00:00,
2013-09-28 15:01:00,78.6,56.7,29.23,South,185,13.0,16.0,47,0.00,,,0.00,WUHU216DAVISVP2,2013-09-28 19:01:00,
2013-09-28 15:02:00,78.6,54.9,29.23,South,178,7.0,16.0,44,0.00,,,0.00,WUHU216DAVISVP2,2013-09-28 19:02:00,
2013-09-28 15:03:00,78.6,55.5,29.23,SW,231,10.0,16.0,45,0.00,,,0.00,WUHU216DAVISVP2,2013-09-28 19:03:00,
2013-09-28 15:05:00,78.7,55.6,29.23,SSW,209,5.0,16.0,45,0.00,,,0.00,WUHU216DAVISVP2,2013-09-28 19:05:00,
2013-09-28 15:06:00,78.7,55.6,29.23,SW,234,9.0,18.0,45,0.00,,,0.00,WUHU216DAVISVP2,2013-09-28 19:06:00,
2013-09-28 15:07:00,78.7,55.6,29.23,SW,229,6.0,18.0,45,0.00,,,0.00,WUHU216DAVISVP2,2013-09-28 19:07:00,
2013-09-28 15:08:00,78.7,56.2,29.23,SSW,211,6.0,18.0,46,0.00,,,0.00,WUHU216DAVISVP2,2013-09-28 19:08:00,
2013-09-28 15:10:00,78.6,55.5,29.23,South,177,5.0,18.0,45,0.00,,,0.00,WUHU216DAVISVP2,2013-09-28 19:10:00,
2013-09-28 15:11:00,78.5,56.0,29.23,South,177,9.0,18.0,46,0.00,,,0.00,WUHU216DAVISVP2,2013-09-28 19:11:00,
2013-09-28 15:12:00,78.4,55.3,29.23,WSW,256,6.0,18.0,45,0.00,,,0.00,WUHU216DAVISVP2,2013-09-28 19:12:00,
2013-09-28 15:14:00,78.4,56.6,29.23,South,190,4.0,18.0,47,0.00,,,0.00,WUHU216DAVISVP2,2013-09-28 19:14:00,
2013-09-28 15:15:00,78.5,56.0,29.23,SW,220,2.0,18.0,46,0.00,,,0.00,WUHU216DAVISVP2,2013-09-28 19:15:00,
2013-09-28 15:16:00,78.5,56.0,29.23,WSW,245,8.0,18.0,46,0.00,,,0.00,WUHU216DAVISVP2,2013-09-28 19:16:00,
2013-09-28 15:18:00,78.5,56.0,29.23,WSW,251,4.0,18.0,46,0.00,,,0.00,WUHU216DAVISVP2,2013-09-28 19:18:00,
2013-09-28 15:19:00,78.6,55.5,29.23,SW,231,7.0,18.0,45,0.00,,,0.00,WUHU216DAVISVP2,2013-09-28 19:19:00,
2013-09-28 15:20:00,78.6,55.5,29.23,SSW,197,3.0,18.0,45,0.00,,,0.00,WUHU216DAVISVP2,2013-09-28 19:20:00,
2013-09-28 15:21:00,78.7,56.2,29.23,South,191,1.0,18.0,46,0.00,,,0.00,WUHU216DAVISVP2,2013-09-28 19:21:00,
2013-09-28 15:23:00,78.6,55.5,29.23,SSW,196,2.0,18.0,45,0.00,,,0.00,WUHU216DAVISVP2,2013-09-28 19:23:00,
2013-09-28 15:24:00,78.5,56.0,29.23,South,191,8.0,18.0,46,0.00,,,0.00,WUHU216DAVISVP2,2013-09-28 19:24:00,
2013-09-28 15:25:00,78.5,56.0,29.23,SW,229,9.0,15.0,46,0.00,,,0.00,WUHU216DAVISVP2,2013-09-28 19:25:00,
2013-09-28 15:26:00,78.5,56.0,29.23,South,184,6.0,15.0,46,0.00,,,0.00,WUHU216DAVISVP2,2013-09-28 19:26:00,
2013-09-28 15:28:00,78.4,55.9,29.23,WSW,239,8.0,15.0,46,0.00,,,0.00,WUHU216DAVISVP2,2013-09-28 19:28:00,
2013-09-28 15:29:00,78.4,56.6,29.23,SW,216,7.0,15.0,47,0.00,,,0.00,WUHU216DAVISVP2,2013-09-28 19:29:00,
2013-09-28 15:30:00,78.5,55.4,29.23,WSW,238,16.0,18.0,45,0.00,,,0.00,WUHU216DAVISVP2,2013-09-28 19:30:00,
2013-09-28 15:31:00,78.5,54.8,29.22,SSE,158,6.0,18.0,44,0.00,,,0.00,WUHU216DAVISVP2,2013-09-28 19:31:00,
2013-09-28 15:33:00,78.5,55.4,29.22,West,262,7.0,18.0,45,0.00,,,0.00,WUHU216DAVISVP2,2013-09-28 19:33:00,
2013-09-28 15:34:00,78.5,55.4,29.22,SW,229,9.0,18.0,45,0.00,,,0.00,WUHU216DAVISVP2,2013-09-28 19:34:00,
2013-09-28 15:35:00,78.6,55.5,29.22,SW,219,6.0,18.0,45,0.00,,,0.00,WUHU216DAVISVP2,2013-09-28 19:35:00,
2013-09-28 15:37:00,78.6,55.5,29.22,SW,216,2.0,18.0,45,0.00,,,0.00,WUHU216DAVISVP2,2013-09-28 19:37:00,
2013-09-28 15:38:00,78.5,55.4,29.23,WSW,237,8.0,18.0,45,0.00,,,0.00,WUHU216DAVISVP2,2013-09-28 19:38:00,
2013-09-28 15:40:00,78.5,56.0,29.22,WSW,245,12.0,18.0,46,0.00,,,0.00,WUHU216DAVISVP2,2013-09-28 19:40:00,
2013-09-28 15:41:00,78.5,55.4,29.22,WSW,239,9.0,18.0,45,0.00,,,0.00,WUHU216DAVISVP2,2013-09-28 19:41:00,
2013-09-28 15:42:00,78.5,54.8,29.22,SW,228,2.0,18.0,44,0.00,,,0.00,WUHU216DAVISVP2,2013-09-28 19:42:00,
2013-09-28 15:43:00,78.5,55.4,29.22,SSW,204,2.0,18.0,45,0.00,,,0.00,WUHU216DAVISVP2,2013-09-28 19:43:00,
2013-09-28 15:45:00,78.5,55.4,29.23,WSW,241,7.0,18.0,45,0.00,,,0.00,WUHU216DAVISVP2,2013-09-28 19:45:00,
2013-09-28 15:46:00,78.5,55.4,29.23,SW,216,2.0,18.0,45,0.00,,,0.00,WUHU216DAVISVP2,2013-09-28 19:46:00,
2013-09-28 15:47:00,78.6,54.9,29.22,SSW,201,0.0,18.0,44,0.00,,,0.00,WUHU216DAVISVP2,2013-09-28 19:47:00,
2013-09-28 15:48:00,78.6,55.5,29.22,SSW,204,3.0,18.0,45,0.00,,,0.00,WUHU216DAVISVP2,2013-09-28 19:48:00,
2013-09-28 15:50:00,78.7,55.6,29.22,SW,216,3.0,16.0,45,0.00,,,0.00,WUHU216DAVISVP2,2013-09-28 19:50:00,
2013-09-28 15:51:00,78.7,55.6,29.22,South,188,4.0,16.0,45,0.00,,,0.00,WUHU216DAVISVP2,2013-09-28 19:51:00,
2013-09-28 15:52:00,78.7,55.6,29.22,SW,235,3.0,16.0,45,0.00,,,0.00,WUHU216DAVISVP2,2013-09-28 19:52:00,
2013-09-28 15:53:00,78.7,55.6,29.22,South,180,9.0,16.0,45,0.00,,,0.00,WUHU216DAVISVP2,2013-09-28 19:53:00,
2013-09-28 15:55:00,78.8,56.3,29.22,South,189,5.0,16.0,46,0.00,,,0.00,WUHU216DAVISVP2,2013-09-28 19:55:00,
2013-09-28 15:56:00,78.9,55.8,29.22,SW,222,2.0,16.0,45,0.00,,,0.00,WUHU216DAVISVP2,2013-09-28 19:56:00,
2013-09-28 15:57:00,78.9,55.1,29.22,South,189,1.0,16.0,44,0.00,,,0.00,WUHU216DAVISVP2,2013-09-28 19:57:00,
2013-09-28 15:58:00,78.9,55.8,29.22,SSW,211,1.0,16.0,45,0.00,,,0.00,WUHU216DAVISVP2,2013-09-28 19:58:00,
2013-09-28 16:00:00,79.0,55.2,29.22,SSE,167,6.0,13.0,44,0.00,,,0.00,WUHU216DAVISVP2,2013-09-28 20:00:00,
2013-09-28 16:01:00,79.0,55.2,29.21,South,181,4.0,13.0,44,0.00,,,0.00,WUHU216DAVISVP2,2013-09-28 20:01:00,
2013-09-28 16:02:00,79.0,55.9,29.21,WSW,253,5.0,13.0,45,0.00,,,0.00,WUHU216DAVISVP2,2013-09-28 20:02:00,
2013-09-28 16:03:00,79.0,56.5,29.22,SW,226,7.0,13.0,46,0.00,,,0.00,WUHU216DAVISVP2,2013-09-28 20:03:00,
2013-09-28 16:06:00,79.0,55.2,29.21,WSW,245,5.0,14.0,44,0.00,,,0.00,WUHU216DAVISVP2,2013-09-28 20:06:00,
2013-09-28 16:07:00,78.9,55.1,29.22,South,183,6.0,14.0,44,0.00,,,0.00,WUHU216DAVISVP2,2013-09-28 20:07:00,
2013-09-28 16:08:00,78.8,54.4,29.22,SSW,207,6.0,14.0,43,0.00,,,0.00,WUHU216DAVISVP2,2013-09-28 20:08:00,
2013-09-28 16:11:00,78.6,54.9,29.22,South,179,6.0,14.0,44,0.00,,,0.00,WUHU216DAVISVP2,2013-09-28 20:11:00,
2013-09-28 16:12:00,78.6,55.5,29.22,SW,215,2.0,14.0,45,0.00,,,0.00,WUHU216DAVISVP2,2013-09-28 20:12:00,
2013-09-28 16:13:00,78.6,54.9,29.21,South,185,2.0,14.0,44,0.00,,,0.00,WUHU216DAVISVP2,2013-09-28 20:13:00,
2013-09-28 16:14:00,78.6,54.9,29.21,SSW,210,1.0,14.0,44,0.00,,,0.00,WUHU216DAVISVP2,2013-09-28 20:14:00,
2013-09-28 16:16:00,78.7,55.0,29.21,South,189,4.0,14.0,44,0.00,,,0.00,WUHU216DAVISVP2,2013-09-28 20:16:00,
2013-09-28 16:17:00,78.6,54.9,29.21,SSW,203,3.0,14.0,44,0.00,,,0.00,WUHU216DAVISVP2,2013-09-28 20:17:00,
2013-09-28 16:18:00,78.7,55.6,29.21,SW,216,2.0,14.0,45,0.00,,,0.00,WUHU216DAVISVP2,2013-09-28 20:18:00,
2013-09-28 16:19:00,78.8,55.7,29.21,SW,214,3.0,14.0,45,0.00,,,0.00,WUHU216DAVISVP2,2013-09-28 20:19:00,
2013-09-28 16:21:00,78.9,56.4,29.21,SW,225,8.0,14.0,46,0.00,,,0.00,WUHU216DAVISVP2,2013-09-28 20:21:00,
2013-09-28 16:22:00,78.9,55.8,29.21,WSW,251,3.0,15.0,45,0.00,,,0.00,WUHU216DAVISVP2,2013-09-28 20:22:00,
2013-09-28 16:23:00,78.9,55.8,29.21,SSW,206,6.0,15.0,45,0.00,,,0.00,WUHU216DAVISVP2,2013-09-28 20:23:00,
2013-09-28 16:24:00,78.9,55.1,29.21,SW,216,9.0,18.0,44,0.00,,,0.00,WUHU216DAVISVP2,2013-09-28 20:24:00,
2013-09-28 16:26:00,78.9,55.1,29.21,South,187,4.0,18.0,44,0.00,,,0.00,WUHU216DAVISVP2,2013-09-28 20:26:00,
2013-09-28 16:27:00,78.9,54.5,29.21,SSW,208,6.0,18.0,43,0.00,,,0.00,WUHU216DAVISVP2,2013-09-28 20:27:00,
2013-09-28 16:28:00,79.0,54.6,29.21,WSW,238,11.0,18.0,43,0.00,,,0.00,WUHU216DAVISVP2,2013-09-28 20:28:00,
2013-09-28 16:30:00,79.0,54.6,29.21,SW,231,6.0,18.0,43,0.00,,,0.00,WUHU216DAVISVP2,2013-09-28 20:30:00,
2013-09-28 16:32:00,79.1,54.7,29.21,SW,229,8.0,18.0,43,0.00,,,0.00,WUHU216DAVISVP2,2013-09-28 20:32:00,
2013-09-28 16:33:00,79.1,55.9,29.21,South,179,9.0,18.0,45,0.00,,,0.00,WUHU216DAVISVP2,2013-09-28 20:33:00,
2013-09-28 16:36:00,79.0,55.2,29.21,SSW,197,2.0,18.0,44,0.00,,,0.00,WUHU216DAVISVP2,2013-09-28 20:36:00,
2013-09-28 16:37:00,79.0,55.9,29.21,South,183,6.0,18.0,45,0.00,,,0.00,WUHU216DAVISVP2,2013-09-28 20:37:00,
2013-09-28 16:38:00,79.0,55.2,29.21,SW,235,8.0,18.0,44,0.00,,,0.00,WUHU216DAVISVP2,2013-09-28 20:38:00,
2013-09-28 16:41:00,79.0,55.2,29.21,SSW,210,2.0,18.0,44,0.00,,,0.00,WUHU216DAVISVP2,2013-09-28 20:41:00,
2013-09-28 16:42:00,79.1,55.3,29.21,WSW,240,4.0,18.0,44,0.00,,,0.00,WUHU216DAVISVP2,2013-09-28 20:42:00,
2013-09-28 16:43:00,79.1,55.3,29.21,SSW,207,6.0,18.0,44,0.00,,,0.00,WUHU216DAVISVP2,2013-09-28 20:43:00,
2013-09-28 16:44:00,79.1,54.7,29.21,SW,221,5.0,18.0,43,0.00,,,0.00,WUHU216DAVISVP2,2013-09-28 20:44:00,
2013-09-28 16:46:00,79.2,55.4,29.21,South,184,6.0,18.0,44,0.00,,,0.00,WUHU216DAVISVP2,2013-09-28 20:46:00,
2013-09-28 16:47:00,79.2,55.4,29.21,South,174,7.0,18.0,44,0.00,,,0.00,WUHU216DAVISVP2,2013-09-28 20:47:00,
2013-09-28 16:49:00,79.2,55.4,29.20,SW,233,1.0,16.0,44,0.00,,,0.00,WUHU216DAVISVP2,2013-09-28 20:49:00,
2013-09-28 16:52:00,79.2,54.8,29.21,SW,233,5.0,18.0,43,0.00,,,0.00,WUHU216DAVISVP2,2013-09-28 20:52:00,
2013-09-28 16:54:00,79.3,55.5,29.20,South,189,5.0,18.0,44,0.00,,,0.00,WUHU216DAVISVP2,2013-09-28 20:54:00,
2013-09-28 16:55:00,79.3,55.5,29.20,South,187,1.0,18.0,44,0.00,,,0.00,WUHU216DAVISVP2,2013-09-28 20:55:00,
2013-09-28 16:57:00,79.4,55.0,29.20,SSE,164,7.0,18.0,43,0.00,,,0.00,WUHU216DAVISVP2,2013-09-28 20:57:00,
2013-09-28 17:00:00,79.4,55.0,29.20,SSE,154,7.0,18.0,43,0.00,,,0.00,WUHU216DAVISVP2,2013-09-28 21:00:00,
2013-09-28 17:02:00,79.4,56.2,29.20,SSW,194,4.0,18.0,45,0.00,,,0.00,WUHU216DAVISVP2,2013-09-28 21:02:00,
2013-09-28 17:03:00,79.5,56.3,29.20,WSW,258,9.0,18.0,45,0.00,,,0.00,WUHU216DAVISVP2,2013-09-28 21:03:00,
2013-09-28 17:05:00,79.6,55.1,29.20,SSW,195,4.0,18.0,43,0.00,,,0.00,WUHU216DAVISVP2,2013-09-28 21:05:00,
2013-09-28 17:07:00,79.9,54.7,29.20,WSW,245,12.0,18.0,42,0.00,,,0.00,WUHU216DAVISVP2,2013-09-28 21:07:00,
2013-09-28 17:09:00,79.9,54.7,29.20,WSW,253,6.0,18.0,42,0.00,,,0.00,WUHU216DAVISVP2,2013-09-28 21:09:00,
2013-09-28 17:10:00,80.0,54.8,29.20,SSW,193,6.0,16.0,42,0.00,,,0.00,WUHU216DAVISVP2,2013-09-28 21:10:00,
2013-09-28 17:13:00,80.0,55.5,29.20,SSW,201,6.0,16.0,43,0.00,,,0.00,WUHU216DAVISVP2,2013-09-28 21:13:00,
2013-09-28 17:14:00,80.0,55.5,29.20,SSW,212,7.0,16.0,43,0.00,,,0.00,WUHU216DAVISVP2,2013-09-28 21:14:00,
2013-09-28 17:15:00,80.0,54.8,29.20,South,190,6.0,16.0,42,0.00,,,0.00,WUHU216DAVISVP2,2013-09-28 21:15:00,
2013-09-28 17:18:00,80.1,54.9,29.20,WNW,285,6.0,19.0,42,0.00,,,0.00,WUHU216DAVISVP2,2013-09-28 21:18:00,
2013-09-28 17:19:00,80.1,54.9,29.20,West,265,9.0,19.0,42,0.00,,,0.00,WUHU216DAVISVP2,2013-09-28 21:19:00,
2013-09-28 17:20:00,80.1,54.9,29.20,West,261,8.0,19.0,42,0.00,,,0.00,WUHU216DAVISVP2,2013-09-28 21:20:00,
2013-09-28 17:23:00,80.1,55.6,29.20,South,191,7.0,19.0,43,0.00,,,0.00,WUHU216DAVISVP2,2013-09-28 21:23:00,
2013-09-28 17:25:00,80.1,54.9,29.20,WNW,298,9.0,19.0,42,0.00,,,0.00,WUHU216DAVISVP2,2013-09-28 21:25:00,
2013-09-28 17:26:00,80.1,54.9,29.20,SW,214,3.0,19.0,42,0.00,,,0.00,WUHU216DAVISVP2,2013-09-28 21:26:00,
2013-09-28 17:28:00,80.1,55.6,29.20,SSW,192,4.0,19.0,43,0.00,,,0.00,WUHU216DAVISVP2,2013-09-28 21:28:00,
2013-09-28 17:30:00,80.0,55.5,29.20,WSW,244,11.0,19.0,43,0.00,,,0.00,WUHU216DAVISVP2,2013-09-28 21:30:00,
2013-09-28 17:31:00,80.0,54.8,29.20,SW,214,5.0,19.0,42,0.00,,,0.00,WUHU216DAVISVP2,2013-09-28 21:31:00,
2013-09-28 17:33:00,79.7,55.2,29.20,WSW,243,13.0,19.0,43,0.00,,,0.00,WUHU216DAVISVP2,2013-09-28 21:33:00,
2013-09-28 17:35:00,79.7,55.2,29.20,WSW,253,7.0,19.0,43,0.00,,,0.00,WUHU216DAVISVP2,2013-09-28 21:35:00,
2013-09-28 17:36:00,79.6,55.8,29.20,WSW,237,8.0,19.0,44,0.00,,,0.00,WUHU216DAVISVP2,2013-09-28 21:36:00,
2013-09-28 17:38:00,79.6,55.8,29.20,SSW,195,3.0,19.0,44,0.00,,,0.00,WUHU216DAVISVP2,2013-09-28 21:38:00,
2013-09-28 17:40:00,79.6,55.1,29.20,SSW,208,5.0,16.0,43,0.00,,,0.00,WUHU216DAVISVP2,2013-09-28 21:40:00,
2013-09-28 17:41:00,79.6,55.1,29.20,SW,223,4.0,16.0,43,0.00,,,0.00,WUHU216DAVISVP2,2013-09-28 21:41:00,
2013-09-28 17:42:00,79.6,55.1,29.20,WSW,242,9.0,16.0,43,0.00,,,0.00,WUHU216DAVISVP2,2013-09-28 21:42:00,
2013-09-28 17:44:00,79.6,55.1,29.20,South,183,9.0,14.0,43,0.00,,,0.00,WUHU216DAVISVP2,2013-09-28 21:44:00,
2013-09-28 17:45:00,79.6,55.1,29.20,SW,235,8.0,14.0,43,0.00,,,0.00,WUHU216DAVISVP2,2013-09-28 21:45:00,
2013-09-28 17:46:00,79.5,55.7,29.21,SSW,208,4.0,15.0,44,0.00,,,0.00,WUHU216DAVISVP2,2013-09-28 21:46:00,
2013-09-28 17:47:00,79.5,55.7,29.21,WSW,248,6.0,15.0,44,0.00,,,0.00,WUHU216DAVISVP2,2013-09-28 21:47:00,
2013-09-28 17:49:00,79.5,55.7,29.21,South,181,5.0,15.0,44,0.00,,,0.00,WUHU216DAVISVP2,2013-09-28 21:49:00,
2013-09-28 17:50:00,79.4,55.6,29.20,SW,216,2.0,15.0,44,0.00,,,0.00,WUHU216DAVISVP2,2013-09-28 21:50:00,
2013-09-28 17:52:00,79.4,55.6,29.20,SW,214,2.0,15.0,44,0.00,,,0.00,WUHU216DAVISVP2,2013-09-28 21:52:00,
2013-09-28 17:53:00,79.4,55.6,29.20,WSW,244,10.0,15.0,44,0.00,,,0.00,WUHU216DAVISVP2,2013-09-28 21:53:00,
2013-09-28 17:54:00,79.4,55.6,29.20,SW,216,6.0,15.0,44,0.00,,,0.00,WUHU216DAVISVP2,2013-09-28 21:54:00,
2013-09-28 17:56:00,79.4,55.6,29.20,South,183,9.0,15.0,44,0.00,,,0.00,WUHU216DAVISVP2,2013-09-28 21:56:00,
2013-09-28 17:57:00,79.4,55.6,29.20,SSW,208,4.0,15.0,44,0.00,,,0.00,WUHU216DAVISVP2,2013-09-28 21:57:00,
2013-09-28 17:58:00,79.4,55.6,29.20,SW,233,6.0,15.0,44,0.00,,,0.00,WUHU216DAVISVP2,2013-09-28 21:58:00,
2013-09-28 17:59:00,79.4,56.2,29.20,South,187,4.0,15.0,45,0.00,,,0.00,WUHU216DAVISVP2,2013-09-28 21:59:00,
2013-09-28 18:01:00,79.4,56.2,29.20,SSW,199,3.0,15.0,45,0.00,,,0.00,WUHU216DAVISVP2,2013-09-28 22:01:00,
2013-09-28 18:02:00,79.3,55.5,29.20,WSW,248,9.0,15.0,44,0.00,,,0.00,WUHU216DAVISVP2,2013-09-28 22:02:00,
2013-09-28 18:03:00,79.3,56.1,29.20,SSW,212,6.0,15.0,45,0.00,,,0.00,WUHU216DAVISVP2,2013-09-28 22:03:00,
2013-09-28 18:04:00,79.3,56.1,29.20,South,189,6.0,14.0,45,0.00,,,0.00,WUHU216DAVISVP2,2013-09-28 22:04:00,
2013-09-28 18:06:00,79.2,56.0,29.20,WSW,239,6.0,14.0,45,0.00,,,0.00,WUHU216DAVISVP2,2013-09-28 22:06:00,
2013-09-28 18:07:00,79.2,56.0,29.20,South,170,1.0,14.0,45,0.00,,,0.00,WUHU216DAVISVP2,2013-09-28 22:07:00,
2013-09-28 18:08:00,79.2,56.0,29.20,SSW,212,2.0,14.0,45,0.00,,,0.00,WUHU216DAVISVP2,2013-09-28 22:08:00,
2013-09-28 18:09:00,79.1,55.9,29.20,SW,219,1.0,14.0,45,0.00,,,0.00,WUHU216DAVISVP2,2013-09-28 22:09:00,
2013-09-28 18:12:00,79.0,55.9,29.20,SW,222,5.0,14.0,45,0.00,,,0.00,WUHU216DAVISVP2,2013-09-28 22:12:00,
2013-09-28 18:14:00,78.9,55.8,29.20,SSW,211,8.0,14.0,45,0.00,,,0.00,WUHU216DAVISVP2,2013-09-28 22:14:00,
2013-09-28 18:17:00,78.9,56.4,29.19,SW,214,3.0,13.0,46,0.00,,,0.00,WUHU216DAVISVP2,2013-09-28 22:17:00,
2013-09-28 18:19:00,78.9,56.4,29.19,SW,221,3.0,13.0,46,0.00,,,0.00,WUHU216DAVISVP2,2013-09-28 22:19:00,
2013-09-28 18:22:00,78.8,56.3,29.19,SW,216,2.0,13.0,46,0.00,,,0.00,WUHU216DAVISVP2,2013-09-28 22:22:00,
2013-09-28 18:24:00,78.7,56.2,29.20,SSW,203,3.0,13.0,46,0.00,,,0.00,WUHU216DAVISVP2,2013-09-28 22:24:00,
2013-09-28 18:27:00,78.4,56.6,29.20,South,179,2.0,13.0,47,0.00,,,0.00,WUHU216DAVISVP2,2013-09-28 22:27:00,
2013-09-28 18:29:00,78.3,56.4,29.20,SSW,195,2.0,13.0,47,0.00,,,0.00,WUHU216DAVISVP2,2013-09-28 22:29:00,
2013-09-28 18:32:00,78.0,56.7,29.19,SW,214,2.0,10.0,48,0.00,,,0.00,WUHU216DAVISVP2,2013-09-28 22:32:00,
2013-09-28 18:33:00,78.0,56.7,29.19,SSW,194,1.0,10.0,48,0.00,,,0.00,WUHU216DAVISVP2,2013-09-28 22:33:00,
2013-09-28 18:34:00,77.9,56.6,29.20,SSW,193,5.0,10.0,48,0.00,,,0.00,WUHU216DAVISVP2,2013-09-28 22:34:00,
2013-09-28 18:35:00,77.7,56.5,29.19,SW,222,1.0,10.0,48,0.00,,,0.00,WUHU216DAVISVP2,2013-09-28 22:35:00,
2013-09-28 18:37:00,77.6,56.4,29.19,WSW,239,2.0,10.0,48,0.00,,,0.00,WUHU216DAVISVP2,2013-09-28 22:37:00,
2013-09-28 18:38:00,77.6,56.4,29.19,SW,214,0.0,10.0,48,0.00,,,0.00,WUHU216DAVISVP2,2013-09-28 22:38:00,
2013-09-28 18:39:00,77.5,56.3,29.19,SSW,197,4.0,10.0,48,0.00,,,0.00,WUHU216DAVISVP2,2013-09-28 22:39:00,
2013-09-28 18:40:00,77.4,56.2,29.19,SSW,200,4.0,10.0,48,0.00,,,0.00,WUHU216DAVISVP2,2013-09-28 22:40:00,
2013-09-28 18:43:00,77.3,56.6,29.19,SSW,212,4.0,10.0,49,0.00,,,0.00,WUHU216DAVISVP2,2013-09-28 22:43:00,
2013-09-28 18:45:00,77.2,56.6,29.19,SSW,212,0.0,10.0,49,0.00,,,0.00,WUHU216DAVISVP2,2013-09-28 22:45:00,
2013-09-28 18:48:00,77.0,56.5,29.19,South,174,2.0,10.0,49,0.00,,,0.00,WUHU216DAVISVP2,2013-09-28 22:48:00,
2013-09-28 18:49:00,76.9,56.4,29.19,South,176,0.0,10.0,49,0.00,,,0.00,WUHU216DAVISVP2,2013-09-28 22:49:00,
2013-09-28 18:50:00,76.9,56.4,29.19,South,178,1.0,10.0,49,0.00,,,0.00,WUHU216DAVISVP2,2013-09-28 22:50:00,
2013-09-28 18:51:00,76.9,56.4,29.19,South,179,0.0,10.0,49,0.00,,,0.00,WUHU216DAVISVP2,2013-09-28 22:51:00,
2013-09-28 18:53:00,76.7,56.8,29.20,South,189,1.0,10.0,50,0.00,,,0.00,WUHU216DAVISVP2,2013-09-28 22:53:00,
2013-09-28 18:54:00,76.7,56.8,29.20,South,189,2.0,7.0,50,0.00,,,0.00,WUHU216DAVISVP2,2013-09-28 22:54:00,
2013-09-28 18:56:00,76.6,56.7,29.20,South,189,0.0,6.0,50,0.00,,,0.00,WUHU216DAVISVP2,2013-09-28 22:56:00,
2013-09-28 18:58:00,76.5,56.6,29.19,SSW,209,1.0,6.0,50,0.00,,,0.00,WUHU216DAVISVP2,2013-09-28 22:58:00,
2013-09-28 18:59:00,76.5,56.5,29.19,South,184,0.0,6.0,50,0.00,,,0.00,WUHU216DAVISVP2,2013-09-28 22:59:00,
2013-09-28 19:01:00,76.5,57.0,29.19,South,184,0.0,6.0,51,0.00,,,0.00,WUHU216DAVISVP2,2013-09-28 23:01:00,
2013-09-28 19:04:00,76.4,56.9,29.19,South,184,0.0,6.0,51,0.00,,,0.00,WUHU216DAVISVP2,2013-09-28 23:04:00,
2013-09-28 19:05:00,76.3,56.8,29.19,South,184,1.0,6.0,51,0.00,,,0.00,WUHU216DAVISVP2,2013-09-28 23:05:00,
2013-09-28 19:06:00,76.3,56.8,29.19,South,184,0.0,6.0,51,0.00,,,0.00,WUHU216DAVISVP2,2013-09-28 23:06:00,
2013-09-28 19:09:00,76.2,56.9,29.19,SSW,193,1.0,6.0,51,0.00,,,0.00,WUHU216DAVISVP2,2013-09-28 23:09:00,
2013-09-28 19:10:00,76.1,56.8,29.19,SSW,193,1.0,6.0,51,0.00,,,0.00,WUHU216DAVISVP2,2013-09-28 23:10:00,
2013-09-28 19:11:00,76.0,56.7,29.19,SSW,193,0.0,6.0,51,0.00,,,0.00,WUHU216DAVISVP2,2013-09-28 23:11:00,
2013-09-28 19:14:00,75.9,57.1,29.19,SSW,193,1.0,6.0,52,0.00,,,0.00,WUHU216DAVISVP2,2013-09-28 23:14:00,
2013-09-28 19:16:00,75.8,57.0,29.19,SSW,193,1.0,6.0,52,0.00,,,0.00,WUHU216DAVISVP2,2013-09-28 23:16:00,
2013-09-28 19:17:00,75.7,56.9,29.19,SSW,193,1.0,6.0,52,0.00,,,0.00,WUHU216DAVISVP2,2013-09-28 23:17:00,
2013-09-28 19:19:00,75.6,56.9,29.19,SSW,193,0.0,5.0,52,0.00,,,0.00,WUHU216DAVISVP2,2013-09-28 23:19:00,
2013-09-28 19:21:00,75.5,56.8,29.19,SSW,193,0.0,5.0,52,0.00,,,0.00,WUHU216DAVISVP2,2013-09-28 23:21:00,
2013-09-28 19:23:00,75.3,56.6,29.19,SSW,193,0.0,5.0,52,0.00,,,0.00,WUHU216DAVISVP2,2013-09-28 23:23:00,
2013-09-28 19:24:00,75.3,57.1,29.19,SSW,193,0.0,5.0,53,0.00,,,0.00,WUHU216DAVISVP2,2013-09-28 23:24:00,
2013-09-28 19:26:00,75.1,56.9,29.19,SSW,193,2.0,5.0,53,0.00,,,0.00,WUHU216DAVISVP2,2013-09-28 23:26:00,
2013-09-28 19:28:00,74.9,57.3,29.19,South,183,0.0,6.0,54,0.00,,,0.00,WUHU216DAVISVP2,2013-09-28 23:28:00,
2013-09-28 19:29:00,74.8,57.2,29.19,South,183,0.0,6.0,54,0.00,,,0.00,WUHU216DAVISVP2,2013-09-28 23:29:00,
2013-09-28 19:31:00,74.7,57.1,29.19,South,183,4.0,6.0,54,0.00,,,0.00,WUHU216DAVISVP2,2013-09-28 23:31:00,
2013-09-28 19:33:00,74.6,57.0,29.19,South,183,0.0,6.0,54,0.00,,,0.00,WUHU216DAVISVP2,2013-09-28 23:33:00,
2013-09-28 19:34:00,74.5,56.9,29.19,South,184,2.0,6.0,54,0.00,,,0.00,WUHU216DAVISVP2,2013-09-28 23:34:00,
2013-09-28 19:36:00,74.4,56.8,29.19,South,184,1.0,6.0,54,0.00,,,0.00,WUHU216DAVISVP2,2013-09-28 23:36:00,
2013-09-28 19:37:00,74.3,56.7,29.19,South,184,0.0,6.0,54,0.00,,,0.00,WUHU216DAVISVP2,2013-09-28 23:37:00,
2013-09-28 19:39:00,74.2,56.6,29.19,South,184,0.0,6.0,54,0.00,,,0.00,WUHU216DAVISVP2,2013-09-28 23:39:00,
2013-09-28 19:41:00,74.1,57.1,29.19,South,184,0.0,6.0,55,0.00,,,0.00,WUHU216DAVISVP2,2013-09-28 23:41:00,
2013-09-28 19:42:00,74.1,57.1,29.19,South,184,0.0,6.0,55,0.00,,,0.00,WUHU216DAVISVP2,2013-09-28 23:42:00,
2013-09-28 19:44:00,74.0,57.0,29.19,South,184,1.0,6.0,55,0.00,,,0.00,WUHU216DAVISVP2,2013-09-28 23:44:00,
2013-09-28 19:46:00,73.9,56.9,29.19,SSE,155,1.0,7.0,55,0.00,,,0.00,WUHU216DAVISVP2,2013-09-28 23:46:00,
2013-09-28 19:47:00,73.9,56.9,29.19,SSW,204,0.0,7.0,55,0.00,,,0.00,WUHU216DAVISVP2,2013-09-28 23:47:00,
2013-09-28 19:49:00,73.8,57.3,29.19,SSW,198,1.0,7.0,56,0.00,,,0.00,WUHU216DAVISVP2,2013-09-28 23:49:00,
2013-09-28 19:51:00,73.6,57.1,29.19,SSW,195,0.0,7.0,56,0.00,,,0.00,WUHU216DAVISVP2,2013-09-28 23:51:00,
2013-09-28 19:52:00,73.6,57.1,29.19,SSW,201,1.0,7.0,56,0.00,,,0.00,WUHU216DAVISVP2,2013-09-28 23:52:00,
2013-09-28 19:54:00,73.5,57.0,29.19,SSW,212,0.0,7.0,56,0.00,,,0.00,WUHU216DAVISVP2,2013-09-28 23:54:00,
2013-09-28 19:56:00,73.4,56.9,29.19,SSW,205,0.0,7.0,56,0.00,,,0.00,WUHU216DAVISVP2,2013-09-28 23:56:00,
2013-09-28 19:58:00,73.3,57.3,29.19,SSW,205,0.0,7.0,57,0.00,,,0.00,WUHU216DAVISVP2,2013-09-28 23:58:00,
2013-09-28 19:59:00,73.2,56.7,29.19,SSW,207,2.0,7.0,56,0.00,,,0.00,WUHU216DAVISVP2,2013-09-28 23:59:00,
2013-09-28 20:00:00,73.2,56.7,29.19,SSW,206,2.0,7.0,56,0.00,,,0.00,WUHU216DAVISVP2,2013-09-29 00:00:00,
2013-09-28 20:01:00,73.1,57.1,29.19,SSW,206,0.0,7.0,57,0.00,,,0.00,WUHU216DAVISVP2,2013-09-29 00:01:00,
2013-09-28 20:03:00,73.0,57.0,29.19,SSW,207,0.0,7.0,57,0.00,,,0.00,WUHU216DAVISVP2,2013-09-29 00:03:00,
2013-09-28 20:05:00,73.0,57.0,29.19,SSW,206,0.0,6.0,57,0.00,,,0.00,WUHU216DAVISVP2,2013-09-29 00:05:00,
2013-09-28 20:07:00,72.9,56.9,29.19,SSW,206,0.0,6.0,57,0.00,,,0.00,WUHU216DAVISVP2,2013-09-29 00:07:00,
2013-09-28 20:09:00,72.9,56.9,29.20,SSW,206,0.0,6.0,57,0.00,,,0.00,WUHU216DAVISVP2,2013-09-29 00:09:00,
2013-09-28 20:10:00,72.8,56.8,29.20,SSW,206,0.0,4.0,57,0.00,,,0.00,WUHU216DAVISVP2,2013-09-29 00:10:00,
2013-09-28 20:12:00,72.8,56.8,29.19,SSW,206,0.0,4.0,57,0.00,,,0.00,WUHU216DAVISVP2,2013-09-29 00:12:00,
2013-09-28 20:14:00,72.7,56.8,29.19,SSW,206,0.0,4.0,57,0.00,,,0.00,WUHU216DAVISVP2,2013-09-29 00:14:00,
2013-09-28 20:15:00,72.7,56.8,29.19,SSW,207,0.0,4.0,57,0.00,,,0.00,WUHU216DAVISVP2,2013-09-29 00:15:00,
2013-09-28 20:16:00,72.6,56.7,29.19,SSW,206,0.0,4.0,57,0.00,,,0.00,WUHU216DAVISVP2,2013-09-29 00:16:00,
2013-09-28 20:17:00,72.6,57.2,29.19,SSW,206,0.0,4.0,58,0.00,,,0.00,WUHU216DAVISVP2,2013-09-29 00:17:00,
2013-09-28 20:19:00,72.6,57.2,29.19,SSW,206,0.0,4.0,58,0.00,,,0.00,WUHU216DAVISVP2,2013-09-29 00:19:00,
2013-09-28 20:20:00,72.5,57.1,29.19,SSW,206,1.0,4.0,58,0.00,,,0.00,WUHU216DAVISVP2,2013-09-29 00:20:00,
2013-09-28 20:21:00,72.5,57.1,29.19,SSW,206,0.0,4.0,58,0.00,,,0.00,WUHU216DAVISVP2,2013-09-29 00:21:00,
2013-09-28 20:22:00,72.4,57.0,29.19,SSW,206,1.0,4.0,58,0.00,,,0.00,WUHU216DAVISVP2,2013-09-29 00:22:00,
2013-09-28 20:24:00,72.4,57.0,29.19,SSW,206,0.0,4.0,58,0.00,,,0.00,WUHU216DAVISVP2,2013-09-29 00:24:00,
2013-09-28 20:25:00,72.3,56.9,29.19,SSW,206,2.0,4.0,58,0.00,,,0.00,WUHU216DAVISVP2,2013-09-29 00:25:00,
2013-09-28 20:26:00,72.3,56.9,29.19,SSW,199,2.0,6.0,58,0.00,,,0.00,WUHU216DAVISVP2,2013-09-29 00:26:00,
2013-09-28 20:28:00,72.2,56.8,29.19,SSW,198,0.0,6.0,58,0.00,,,0.00,WUHU216DAVISVP2,2013-09-29 00:28:00,
2013-09-28 20:29:00,72.2,56.8,29.19,SSW,198,0.0,6.0,58,0.00,,,0.00,WUHU216DAVISVP2,2013-09-29 00:29:00,
2013-09-28 20:30:00,72.1,56.7,29.19,South,172,4.0,6.0,58,0.00,,,0.00,WUHU216DAVISVP2,2013-09-29 00:30:00,
2013-09-28 20:31:00,72.1,56.7,29.19,South,172,1.0,6.0,58,0.00,,,0.00,WUHU216DAVISVP2,2013-09-29 00:31:00,
2013-09-28 20:33:00,72.1,56.7,29.19,South,172,0.0,6.0,58,0.00,,,0.00,WUHU216DAVISVP2,2013-09-29 00:33:00,
2013-09-28 20:34:00,72.0,56.6,29.20,South,174,0.0,6.0,58,0.00,,,0.00,WUHU216DAVISVP2,2013-09-29 00:34:00,
2013-09-28 20:36:00,72.0,56.6,29.20,South,174,0.0,6.0,58,0.00,,,0.00,WUHU216DAVISVP2,2013-09-29 00:36:00,
2013-09-28 20:37:00,71.9,57.0,29.19,South,174,0.0,6.0,59,0.00,,,0.00,WUHU216DAVISVP2,2013-09-29 00:37:00,
2013-09-28 20:38:00,71.9,57.0,29.19,South,174,2.0,6.0,59,0.00,,,0.00,WUHU216DAVISVP2,2013-09-29 00:38:00,
2013-09-28 20:40:00,71.8,56.9,29.19,South,177,0.0,6.0,59,0.00,,,0.00,WUHU216DAVISVP2,2013-09-29 00:40:00,
2013-09-28 20:41:00,71.8,56.9,29.19,South,177,0.0,6.0,59,0.00,,,0.00,WUHU216DAVISVP2,2013-09-29 00:41:00,
2013-09-28 20:42:00,71.7,56.8,29.19,South,177,0.0,6.0,59,0.00,,,0.00,WUHU216DAVISVP2,2013-09-29 00:42:00,
2013-09-28 20:43:00,71.7,56.8,29.19,South,177,0.0,6.0,59,0.00,,,0.00,WUHU216DAVISVP2,2013-09-29 00:43:00,
2013-09-28 20:45:00,71.6,56.7,29.19,South,177,0.0,6.0,59,0.00,,,0.00,WUHU216DAVISVP2,2013-09-29 00:45:00,
2013-09-28 20:46:00,71.5,56.6,29.19,South,177,0.0,6.0,59,0.00,,,0.00,WUHU216DAVISVP2,2013-09-29 00:46:00,
2013-09-28 20:47:00,71.5,56.6,29.19,South,177,0.0,6.0,59,0.00,,,0.00,WUHU216DAVISVP2,2013-09-29 00:47:00,
2013-09-28 20:48:00,71.5,57.1,29.19,South,177,0.0,6.0,60,0.00,,,0.00,WUHU216DAVISVP2,2013-09-29 00:48:00,
2013-09-28 20:50:00,71.4,57.0,29.19,South,177,4.0,6.0,60,0.00,,,0.00,WUHU216DAVISVP2,2013-09-29 00:50:00,
2013-09-28 20:51:00,71.4,57.0,29.19,South,177,0.0,6.0,60,0.00,,,0.00,WUHU216DAVISVP2,2013-09-29 00:51:00,
2013-09-28 20:52:00,71.3,56.9,29.19,South,178,0.0,6.0,60,0.00,,,0.00,WUHU216DAVISVP2,2013-09-29 00:52:00,
2013-09-28 20:53:00,71.3,56.9,29.19,South,177,2.0,6.0,60,0.00,,,0.00,WUHU216DAVISVP2,2013-09-29 00:53:00,
2013-09-28 20:55:00,71.2,56.8,29.19,South,177,2.0,6.0,60,0.00,,,0.00,WUHU216DAVISVP2,2013-09-29 00:55:00,
2013-09-28 20:56:00,71.2,56.8,29.18,SSW,212,0.0,6.0,60,0.00,,,0.00,WUHU216DAVISVP2,2013-09-29 00:56:00,
2013-09-28 20:58:00,71.1,56.7,29.19,SSW,192,0.0,6.0,60,0.00,,,0.00,WUHU216DAVISVP2,2013-09-29 00:58:00,
2013-09-28 21:00:00,71.0,56.6,29.19,South,187,5.0,7.0,60,0.00,,,0.00,WUHU216DAVISVP2,2013-09-29 01:00:00,
2013-09-28 21:01:00,71.0,56.6,29.19,South,187,2.0,7.0,60,0.00,,,0.00,WUHU216DAVISVP2,2013-09-29 01:01:00,
2013-09-28 21:03:00,70.9,57.0,29.19,South,189,2.0,7.0,61,0.00,,,0.00,WUHU216DAVISVP2,2013-09-29 01:03:00,
2013-09-28 21:05:00,70.8,56.9,29.19,South,189,2.0,7.0,61,0.00,,,0.00,WUHU216DAVISVP2,2013-09-29 01:05:00,
2013-09-28 21:06:00,70.8,56.4,29.19,South,189,1.0,7.0,60,0.00,,,0.00,WUHU216DAVISVP2,2013-09-29 01:06:00,
2013-09-28 21:08:00,70.8,56.9,29.18,South,189,4.0,7.0,61,0.00,,,0.00,WUHU216DAVISVP2,2013-09-29 01:08:00,
2013-09-28 21:10:00,70.8,56.4,29.19,South,189,3.0,7.0,60,0.00,,,0.00,WUHU216DAVISVP2,2013-09-29 01:10:00,
2013-09-28 21:11:00,70.7,56.3,29.19,South,189,0.0,7.0,60,0.00,,,0.00,WUHU216DAVISVP2,2013-09-29 01:11:00,
2013-09-28 21:13:00,70.7,56.8,29.19,South,189,4.0,7.0,61,0.00,,,0.00,WUHU216DAVISVP2,2013-09-29 01:13:00,
2013-09-28 21:15:00,70.7,56.3,29.19,South,189,0.0,7.0,60,0.00,,,0.00,WUHU216DAVISVP2,2013-09-29 01:15:00,
2013-09-28 21:16:00,70.7,56.8,29.19,South,189,0.0,7.0,61,0.00,,,0.00,WUHU216DAVISVP2,2013-09-29 01:16:00,
2013-09-28 21:18:00,70.7,56.8,29.18,South,189,4.0,6.0,61,0.00,,,0.00,WUHU216DAVISVP2,2013-09-29 01:18:00,
2013-09-28 21:20:00,70.7,56.3,29.18,South,189,0.0,5.0,60,0.00,,,0.00,WUHU216DAVISVP2,2013-09-29 01:20:00,
2013-09-28 21:21:00,70.7,56.3,29.18,South,189,1.0,5.0,60,0.00,,,0.00,WUHU216DAVISVP2,2013-09-29 01:21:00,
2013-09-28 21:23:00,70.7,56.3,29.18,South,189,0.0,5.0,60,0.00,,,0.00,WUHU216DAVISVP2,2013-09-29 01:23:00,
2013-09-28 21:25:00,70.7,56.8,29.18,South,189,2.0,5.0,61,0.00,,,0.00,WUHU216DAVISVP2,2013-09-29 01:25:00,
2013-09-28 21:26:00,70.7,56.8,29.19,South,189,0.0,5.0,61,0.00,,,0.00,WUHU216DAVISVP2,2013-09-29 01:26:00,
2013-09-28 21:28:00,70.7,56.8,29.18,South,189,0.0,5.0,61,0.00,,,0.00,WUHU216DAVISVP2,2013-09-29 01:28:00,
2013-09-28 21:30:00,70.6,56.7,29.18,South,189,1.0,5.0,61,0.00,,,0.00,WUHU216DAVISVP2,2013-09-29 01:30:00,
2013-09-28 21:31:00,70.6,56.7,29.18,South,189,0.0,5.0,61,0.00,,,0.00,WUHU216DAVISVP2,2013-09-29 01:31:00,
2013-09-28 21:33:00,70.6,56.7,29.18,South,189,0.0,4.0,61,0.00,,,0.00,WUHU216DAVISVP2,2013-09-29 01:33:00,
2013-09-28 21:36:00,70.5,56.6,29.18,South,189,1.0,4.0,61,0.00,,,0.00,WUHU216DAVISVP2,2013-09-29 01:36:00,
2013-09-28 21:38:00,70.4,56.9,29.18,South,189,1.0,4.0,62,0.00,,,0.00,WUHU216DAVISVP2,2013-09-29 01:38:00,
2013-09-28 21:41:00,70.3,56.9,29.19,SSW,199,1.0,5.0,62,0.00,,,0.00,WUHU216DAVISVP2,2013-09-29 01:41:00,
2013-09-28 21:43:00,70.2,56.8,29.18,SSW,199,0.0,5.0,62,0.00,,,0.00,WUHU216DAVISVP2,2013-09-29 01:43:00,
2013-09-28 21:46:00,70.1,56.7,29.18,South,183,0.0,5.0,62,0.00,,,0.00,WUHU216DAVISVP2,2013-09-29 01:46:00,
2013-09-28 21:47:00,70.1,56.7,29.18,SSW,199,1.0,5.0,62,0.00,,,0.00,WUHU216DAVISVP2,2013-09-29 01:47:00,
2013-09-28 21:49:00,70.1,56.7,29.18,SSW,212,0.0,5.0,62,0.00,,,0.00,WUHU216DAVISVP2,2013-09-29 01:49:00,
2013-09-28 21:51:00,70.0,57.0,29.18,SSW,212,0.0,5.0,63,0.00,,,0.00,WUHU216DAVISVP2,2013-09-29 01:51:00,
2013-09-28 21:52:00,69.9,56.9,29.18,SSW,212,0.0,5.0,63,0.00,,,0.00,WUHU216DAVISVP2,2013-09-29 01:52:00,
2013-09-28 21:54:00,69.9,56.9,29.18,SSW,212,0.0,5.0,63,0.00,,,0.00,WUHU216DAVISVP2,2013-09-29 01:54:00,
2013-09-28 21:56:00,69.8,56.8,29.18,SSW,212,0.0,5.0,63,0.00,,,0.00,WUHU216DAVISVP2,2013-09-29 01:56:00,
2013-09-28 21:57:00,69.8,56.8,29.18,SSW,212,1.0,5.0,63,0.00,,,0.00,WUHU216DAVISVP2,2013-09-29 01:57:00,
2013-09-28 21:59:00,69.7,56.7,29.18,South,186,1.0,7.0,63,0.00,,,0.00,WUHU216DAVISVP2,2013-09-29 01:59:00,
2013-09-28 22:02:00,69.6,56.6,29.18,SSW,198,0.0,7.0,63,0.00,,,0.00,WUHU216DAVISVP2,2013-09-29 02:02:00,
2013-09-28 22:04:00,69.5,57.0,29.18,SSW,197,1.0,7.0,64,0.00,,,0.00,WUHU216DAVISVP2,2013-09-29 02:04:00,
2013-09-28 22:07:00,69.4,56.9,29.18,South,188,1.0,7.0,64,0.00,,,0.00,WUHU216DAVISVP2,2013-09-29 02:07:00,
2013-09-28 22:09:00,69.3,56.8,29.19,SW,229,0.0,7.0,64,0.00,,,0.00,WUHU216DAVISVP2,2013-09-29 02:09:00,
2013-09-28 22:12:00,69.2,56.7,29.19,South,189,2.0,7.0,64,0.00,,,0.00,WUHU216DAVISVP2,2013-09-29 02:12:00,
2013-09-28 22:14:00,69.0,56.9,29.19,SSW,212,0.0,7.0,65,0.00,,,0.00,WUHU216DAVISVP2,2013-09-29 02:14:00,
2013-09-28 22:17:00,69.0,56.9,29.19,SSW,193,0.0,7.0,65,0.00,,,0.00,WUHU216DAVISVP2,2013-09-29 02:17:00,
2013-09-28 22:19:00,68.9,56.8,29.19,SSW,198,0.0,6.0,65,0.00,,,0.00,WUHU216DAVISVP2,2013-09-29 02:19:00,
2013-09-28 22:22:00,68.8,56.7,29.19,SW,232,0.0,6.0,65,0.00,,,0.00,WUHU216DAVISVP2,2013-09-29 02:22:00,
2013-09-28 22:23:00,68.8,56.7,29.19,SW,232,0.0,6.0,65,0.00,,,0.00,WUHU216DAVISVP2,2013-09-29 02:23:00,
2013-09-28 22:24:00,68.8,56.7,29.18,SW,232,1.0,6.0,65,0.00,,,0.00,WUHU216DAVISVP2,2013-09-29 02:24:00,
2013-09-28 22:27:00,68.7,57.1,29.18,SSW,206,3.0,6.0,66,0.00,,,0.00,WUHU216DAVISVP2,2013-09-29 02:27:00,
2013-09-28 22:28:00,68.7,57.1,29.18,SSW,206,0.0,6.0,66,0.00,,,0.00,WUHU216DAVISVP2,2013-09-29 02:28:00,
2013-09-28 22:29:00,68.6,57.0,29.19,SSW,210,0.0,6.0,66,0.00,,,0.00,WUHU216DAVISVP2,2013-09-29 02:29:00,
2013-09-28 22:33:00,68.6,57.0,29.19,SW,220,2.0,6.0,66,0.00,,,0.00,WUHU216DAVISVP2,2013-09-29 02:33:00,
2013-09-28 22:35:00,68.6,57.0,29.19,SW,220,1.0,6.0,66,0.00,,,0.00,WUHU216DAVISVP2,2013-09-29 02:35:00,
2013-09-28 22:38:00,68.5,56.9,29.19,South,188,0.0,6.0,66,0.00,,,0.00,WUHU216DAVISVP2,2013-09-29 02:38:00,
2013-09-28 22:40:00,68.5,56.9,29.19,SSW,206,1.0,6.0,66,0.00,,,0.00,WUHU216DAVISVP2,2013-09-29 02:40:00,
2013-09-28 22:43:00,68.4,56.8,29.19,SSW,195,1.0,6.0,66,0.00,,,0.00,WUHU216DAVISVP2,2013-09-29 02:43:00,
2013-09-28 22:45:00,68.4,56.8,29.19,SSW,211,0.0,6.0,66,0.00,,,0.00,WUHU216DAVISVP2,2013-09-29 02:45:00,
2013-09-28 22:48:00,68.2,57.0,29.18,SSW,212,0.0,9.0,67,0.00,,,0.00,WUHU216DAVISVP2,2013-09-29 02:48:00,
2013-09-28 22:50:00,68.2,57.0,29.18,SW,216,0.0,9.0,67,0.00,,,0.00,WUHU216DAVISVP2,2013-09-29 02:50:00,
2013-09-28 22:53:00,68.1,56.9,29.18,SSW,203,0.0,12.0,67,0.00,,,0.00,WUHU216DAVISVP2,2013-09-29 02:53:00,
2013-09-28 22:54:00,68.1,56.9,29.18,SW,232,0.0,12.0,67,0.00,,,0.00,WUHU216DAVISVP2,2013-09-29 02:54:00,
2013-09-28 22:55:00,68.1,56.9,29.18,SW,218,1.0,12.0,67,0.00,,,0.00,WUHU216DAVISVP2,2013-09-29 02:55:00,
2013-09-28 22:58:00,68.0,57.2,29.18,SW,222,2.0,12.0,68,0.00,,,0.00,WUHU216DAVISVP2,2013-09-29 02:58:00,
2013-09-28 22:59:00,67.9,57.1,29.18,SW,222,1.0,12.0,68,0.00,,,0.00,WUHU216DAVISVP2,2013-09-29 02:59:00,
2013-09-28 23:00:00,67.9,57.1,29.18,SW,221,5.0,12.0,68,0.00,,,0.00,WUHU216DAVISVP2,2013-09-29 03:00:00,
2013-09-28 23:04:00,67.8,57.0,29.19,SW,228,2.0,12.0,68,0.00,,,0.00,WUHU216DAVISVP2,2013-09-29 03:04:00,
2013-09-28 23:05:00,67.7,56.9,29.19,SSW,192,2.0,12.0,68,0.00,,,0.00,WUHU216DAVISVP2,2013-09-29 03:05:00,
2013-09-28 23:09:00,67.7,56.9,29.18,SW,214,0.0,12.0,68,0.00,,,0.00,WUHU216DAVISVP2,2013-09-29 03:09:00,
2013-09-28 23:10:00,67.6,57.2,29.18,SSW,212,0.0,7.0,69,0.00,,,0.00,WUHU216DAVISVP2,2013-09-29 03:10:00,
2013-09-28 23:14:00,67.6,57.2,29.19,SW,220,1.0,7.0,69,0.00,,,0.00,WUHU216DAVISVP2,2013-09-29 03:14:00,
2013-09-28 23:15:00,67.6,57.2,29.19,SW,220,0.0,7.0,69,0.00,,,0.00,WUHU216DAVISVP2,2013-09-29 03:15:00,
2013-09-28 23:19:00,67.5,57.1,29.19,SW,228,1.0,7.0,69,0.00,,,0.00,WUHU216DAVISVP2,2013-09-29 03:19:00,
2013-09-28 23:21:00,67.5,57.1,29.19,SSW,201,4.0,7.0,69,0.00,,,0.00,WUHU216DAVISVP2,2013-09-29 03:21:00,
2013-09-28 23:25:00,67.4,57.4,29.19,SSW,195,0.0,7.0,70,0.00,,,0.00,WUHU216DAVISVP2,2013-09-29 03:25:00,
2013-09-28 23:26:00,67.4,57.4,29.19,South,174,1.0,7.0,70,0.00,,,0.00,WUHU216DAVISVP2,2013-09-29 03:26:00,
2013-09-28 23:30:00,67.2,57.2,29.19,SSW,196,3.0,7.0,70,0.00,,,0.00,WUHU216DAVISVP2,2013-09-29 03:30:00,
2013-09-28 23:31:00,67.2,57.2,29.19,South,171,2.0,7.0,70,0.00,,,0.00,WUHU216DAVISVP2,2013-09-29 03:31:00,
2013-09-28 23:35:00,67.0,57.4,29.19,SSW,192,1.0,7.0,71,0.00,,,0.00,WUHU216DAVISVP2,2013-09-29 03:35:00,
2013-09-28 23:36:00,67.0,57.4,29.19,SW,224,2.0,6.0,71,0.00,,,0.00,WUHU216DAVISVP2,2013-09-29 03:36:00,
2013-09-28 23:40:00,66.8,57.3,29.19,SW,221,0.0,7.0,71,0.00,,,0.00,WUHU216DAVISVP2,2013-09-29 03:40:00,
2013-09-28 23:41:00,66.8,57.3,29.19,SSW,201,2.0,7.0,71,0.00,,,0.00,WUHU216DAVISVP2,2013-09-29 03:41:00,
2013-09-28 23:45:00,66.7,57.2,29.19,SSW,197,0.0,7.0,71,0.00,,,0.00,WUHU216DAVISVP2,2013-09-29 03:45:00,
2013-09-28 23:46:00,66.7,57.2,29.19,SSW,197,2.0,7.0,71,0.00,,,0.00,WUHU216DAVISVP2,2013-09-29 03:46:00,
2013-09-28 23:50:00,66.7,57.5,29.19,SW,218,0.0,7.0,72,0.00,,,0.00,WUHU216DAVISVP2,2013-09-29 03:50:00,
2013-09-28 23:51:00,66.7,57.5,29.19,SW,218,1.0,7.0,72,0.00,,,0.00,WUHU216DAVISVP2,2013-09-29 03:51:00,
2013-09-28 23:56:00,66.5,57.3,29.19,South,179,3.0,7.0,72,0.00,,,0.00,WUHU216DAVISVP2,2013-09-29 03:56:00,